ECMWFFLT1_500_spd_003.txt.gz
Wind_Speed
20 22 23 23 22 21 21 22 23 25 25 26 26 27 28 28 29 30 30 31 31 30 29 29 30 30 30 30 30 31 31 31 32 33 34 34 35 35 36 37 39 40 42 43 44 45 44 44 43 42 41 40 39 39 39 39 39 37 35 35 34 33 33
22 24 25 26 25 23 23 23 25 26 27 27 28 28 29 30 30 31 32 32 32 31 29 30 31 31 31 31 31 31 32 32 33 34 35 36 36 36 37 38 40 42 42 43 43 42 41 41 41 40 39 39 39 39 38 39 39 38 36 35 35 33 33
24 26 27 27 27 26 25 25 26 27 28 29 29 30 30 31 32 32 33 33 33 31 30 31 32 32 31 31 32 32 33 33 34 35 36 37 37 37 37 39 41 43 43 42 42 40 39 39 38 38 38 39 39 40 39 39 39 38 37 36 36 35 35
26 27 27 28 28 28 27 27 28 29 30 30 30 31 31 32 32 33 34 34 33 31 30 32 33 32 32 32 32 33 33 34 35 37 37 37 37 37 38 40 42 43 43 42 40 38 38 37 36 37 39 40 40 40 40 40 39 39 38 38 37 36 37
28 27 27 28 29 29 28 29 29 30 31 30 30 31 32 32 33 33 35 35 33 31 31 33 33 33 32 32 33 34 34 35 37 37 38 38 38 38 39 41 43 43 42 40 38 37 36 35 35 38 40 41 41 41 40 40 39 39 39 38 38 38 38
28 28 28 28 29 29 29 30 30 31 31 31 31 32 32 32 33 34 35 35 33 31 31 34 34 33 33 33 33 34 35 36 37 38 39 38 39 39 40 42 43 43 42 39 37 36 35 34 35 38 39 40 41 41 39 38 37 37 37 37 38 39 39
28 28 28 29 29 30 30 30 30 31 31 31 31 32 32 32 33 34 35 35 33 32 33 34 34 34 34 33 34 35 36 37 38 39 39 39 40 40 41 43 44 43 42 39 37 35 34 34 36 38 39 40 41 41 39 37 36 36 36 36 37 39 40
28 28 28 29 30 30 30 30 30 31 32 32 32 33 33 32 33 35 35 35 34 33 34 35 35 34 34 34 35 36 37 38 39 39 40 40 41 41 42 44 44 43 41 39 37 36 36 37 38 39 39 39 40 41 40 39 37 36 36 36 37 38 40
27 27 28 30 30 30 30 30 31 32 32 32 33 33 33 33 34 35 35 35 35 34 35 36 36 35 35 35 35 36 38 39 40 40 41 41 41 42 43 44 45 43 41 39 37 36 37 38 40 40 38 38 40 41 40 39 37 36 36 35 35 36 37
27 28 29 30 30 30 30 30 32 33 33 33 33 34 33 34 35 35 35 36 36 35 36 37 37 36 36 36 36 37 38 39 40 41 42 42 42 43 44 45 45 43 40 38 37 37 37 39 40 40 38 38 40 41 39 38 37 37 36 36 35 35 35
27 28 29 30 29 29 29 30 32 34 34 34 34 34 34 35 36 36 36 37 37 36 37 38 38 37 37 37 37 38 39 40 41 42 42 43 43 44 45 45 45 43 39 38 37 37 38 39 40 40 38 38 40 41 40 38 37 37 36 35 34 34 34
26 27 29 30 29 29 30 31 33 34 34 34 35 36 35 35 36 37 37 37 37 37 38 38 39 38 38 38 39 40 41 42 42 43 43 44 44 45 46 46 45 43 39 37 37 38 39 40 40 39 38 38 40 41 40 38 37 36 34 32 32 32 32
27 28 29 30 30 30 31 32 34 35 35 36 37 36 36 36 37 38 38 38 38 38 39 39 40 40 40 40 40 41 43 43 44 44 44 44 45 47 47 46 46 43 39 38 38 38 39 40 40 39 39 40 40 41 40 38 37 36 34 32 31 30 30
28 29 31 31 32 32 32 33 34 35 36 36 37 36 36 37 38 38 39 39 39 39 39 40 41 41 41 41 42 43 44 45 45 45 45 45 46 47 47 47 45 43 40 38 38 39 39 40 41 41 41 41 40 40 39 37 37 36 34 31 30 30 31
30 31 32 33 34 33 33 34 35 36 36 37 36 36 37 38 38 39 40 41 41 40 40 41 42 43 43 42 43 44 45 46 47 46 46 46 46 47 47 46 45 43 40 38 39 39 41 42 42 42 42 41 40 40 38 37 36 36 35 32 31 32 32
30 32 33 34 35 35 35 36 36 37 37 37 36 36 37 39 39 40 41 42 42 42 42 43 44 45 44 43 43 45 46 47 47 47 46 46 46 47 46 45 44 42 40 38 39 40 41 43 43 44 43 40 38 38 37 36 35 35 35 34 33 33 32
31 33 34 35 36 36 36 37 37 37 37 36 36 37 38 39 39 41 42 43 43 43 43 44 45 46 45 44 44 45 47 47 47 46 46 45 46 46 46 44 43 41 39 39 39 40 41 43 44 44 42 39 36 36 36 35 35 35 35 35 35 34 33
33 34 35 36 36 37 38 38 38 38 37 36 37 38 39 39 39 41 43 43 43 44 44 45 46 46 45 45 45 46 47 47 46 46 45 45 45 45 45 43 42 40 39 39 40 41 42 43 44 43 40 37 33 33 34 34 35 35 35 35 34 33 32
35 35 35 36 37 38 39 39 38 38 37 37 38 39 39 39 40 42 44 44 44 44 45 45 46 46 45 45 46 47 47 47 46 46 45 45 45 44 44 42 42 41 41 41 42 42 43 43 43 41 37 34 31 30 32 33 34 35 35 34 33 31 30
35 35 35 36 37 38 39 38 38 37 37 38 39 40 39 39 41 44 45 45 45 45 45 46 46 46 45 45 46 47 48 48 47 46 45 45 44 44 43 42 42 42 42 43 43 43 42 42 41 38 34 31 29 29 30 31 32 33 34 33 31 29 27
35 35 35 36 37 38 38 38 38 37 37 38 39 39 39 40 43 44 46 46 45 45 45 46 46 46 45 46 48 48 49 48 47 46 46 45 44 43 42 42 42 43 43 44 44 43 41 40 38 35 32 30 29 29 29 29 30 32 33 32 29 27 26
35 35 35 35 36 37 38 38 37 36 36 37 38 39 40 42 44 45 46 47 46 45 46 46 46 46 47 48 49 49 49 48 47 46 45 45 44 42 42 42 42 43 44 44 44 42 39 38 36 33 31 28 28 29 29 29 29 31 32 31 29 27 25
34 34 35 35 36 37 38 37 36 34 35 37 38 40 42 43 44 46 47 47 47 46 46 46 46 47 48 49 50 49 49 48 47 46 45 44 43 42 41 42 42 43 44 43 42 39 37 35 34 32 29 27 27 27 28 29 29 30 32 31 29 27 25
34 34 35 36 36 36 36 36 35 35 37 38 40 42 43 44 45 46 47 48 48 47 47 47 47 49 49 50 50 49 49 48 47 45 44 43 43 42 41 42 43 43 42 40 38 36 34 32 32 30 28 26 25 26 27 28 28 29 31 31 29 27 26
33 33 34 35 35 35 35 35 36 37 38 39 41 43 44 45 46 46 47 48 48 47 47 47 48 49 50 50 50 49 48 47 46 45 44 43 42 42 42 42 43 42 39 38 36 34 31 30 29 28 27 25 24 24 25 26 27 28 29 30 29 28 26
33 33 34 34 34 34 35 36 37 38 39 40 42 44 45 45 46 46 46 47 47 47 47 47 49 50 50 49 49 49 48 46 45 45 44 43 42 42 42 41 40 39 37 37 35 32 29 27 26 26 25 24 24 24 24 25 26 27 28 29 29 28 26
34 34 34 34 33 34 36 37 38 39 40 42 43 45 46 46 46 46 46 46 47 48 48 48 50 50 50 49 49 48 47 46 45 44 44 43 42 41 39 37 36 35 35 35 32 29 26 25 24 25 24 24 23 23 24 25 25 26 27 28 28 28 27
35 35 34 34 35 36 37 38 39 40 42 43 44 45 46 46 47 47 47 46 47 49 49 49 50 50 50 49 48 47 46 46 45 45 44 43 41 39 38 35 33 33 33 32 29 26 24 23 23 24 23 23 23 24 24 24 24 25 27 28 28 28 28
36 36 35 35 36 37 38 39 40 41 43 44 44 45 46 47 47 47 47 47 48 49 49 49 49 49 49 48 47 46 46 46 46 46 44 43 41 39 37 34 32 31 31 29 28 26 23 22 23 23 23 23 23 24 24 24 24 24 25 27 28 27 28
35 35 35 35 35 36 37 39 41 43 43 44 45 45 46 47 48 47 47 47 48 49 49 48 48 48 48 47 46 46 46 47 47 46 44 42 40 38 35 32 29 28 27 28 28 27 24 23 23 23 23 23 23 23 24 24 23 23 24 25 26 27 27
33 33 34 34 35 37 38 40 42 43 44 44 45 45 46 47 47 46 46 46 48 48 48 48 47 47 46 46 46 46 47 47 47 46 44 41 38 36 34 31 28 26 25 26 27 25 24 24 24 23 22 23 23 23 23 23 23 22 22 23 24 25 25
33 33 34 35 37 38 39 41 43 43 44 45 45 46 46 46 45 45 45 46 47 47 47 47 46 45 45 46 46 46 46 47 47 45 43 40 37 35 33 31 28 26 25 26 25 22 22 24 24 23 22 22 23 23 23 23 22 21 21 21 22 23 24
35 35 36 37 38 39 41 42 43 44 44 45 45 45 45 45 44 45 45 45 46 47 46 45 44 44 45 46 46 46 46 46 46 45 42 39 36 34 32 31 28 25 24 25 24 22 21 23 24 23 22 22 23 23 22 22 22 21 20 20 20 21 22
37 38 39 40 41 42 43 43 44 44 45 45 45 45 45 45 45 46 45 45 46 46 45 44 43 44 45 45 45 45 45 45 45 44 41 38 35 33 32 30 27 24 24 26 25 23 22 23 23 23 22 22 22 23 22 22 21 21 20 20 20 20 21
39 40 41 42 43 43 44 44 43 44 45 46 46 46 46 46 46 46 46 45 45 44 43 42 42 43 44 44 44 44 44 44 44 42 40 38 36 34 33 29 26 24 25 25 24 22 22 22 22 22 23 23 22 22 22 22 22 22 21 21 21 20 20
41 42 43 43 44 44 44 44 44 45 46 47 47 47 47 47 47 46 45 44 44 42 42 41 42 43 43 43 43 44 44 44 43 41 39 37 36 35 32 29 26 25 24 22 21 21 20 19 20 21 22 23 22 21 22 22 22 22 22 22 22 21 20
42 43 44 45 45 44 44 44 45 47 48 48 48 48 47 47 46 45 44 43 42 41 41 41 41 41 41 41 42 43 43 42 42 40 39 38 36 34 31 28 25 23 21 19 19 19 19 18 18 19 20 21 22 22 22 23 23 23 23 23 23 22 21
43 44 45 46 46 45 45 46 47 48 49 49 48 47 46 45 44 43 43 41 41 40 40 40 39 39 39 40 41 41 41 42 41 39 38 37 35 31 28 25 21 18 18 17 17 18 19 19 18 19 19 20 21 22 23 24 24 24 24 23 23 23 21

ECMWFFLT1_500_spd_006.txt.gz
Wind_Speed
24 25 25 25 25 25 25 24 24 24 24 24 25 26 26 27 26 26 27 27 28 29 29 29 28 28 27 27 28 30 30 30 30 30 30 30 31 32 33 35 36 36 37 38 38 39 41 43 44 44 45 45 44 41 38 37 36 36 36 36 36 36 35
26 27 28 28 27 27 27 27 26 26 25 25 26 27 28 29 28 28 28 28 29 29 30 30 29 29 29 29 30 31 31 32 32 32 31 31 32 33 34 35 36 37 37 38 39 40 41 42 43 43 43 43 42 40 39 38 38 38 37 36 35 34 34
27 29 30 29 29 28 28 28 28 27 26 27 28 28 30 30 29 29 29 29 29 30 30 30 30 31 30 30 31 32 33 33 33 33 32 32 33 33 34 35 36 37 37 38 39 40 41 42 43 42 42 41 41 39 39 39 40 40 39 37 35 34 34
26 28 30 30 29 29 30 30 29 28 27 27 28 29 30 31 30 30 30 30 30 31 31 31 31 32 32 32 32 33 34 35 35 34 33 33 34 34 35 36 37 37 38 39 40 41 41 42 42 41 40 40 39 39 39 40 41 41 40 38 37 35 35
24 27 29 29 30 31 31 30 29 28 28 28 29 30 31 32 32 31 31 31 32 32 31 31 32 32 33 33 33 34 35 36 36 35 34 34 35 35 36 37 38 38 38 39 40 41 42 42 42 40 39 38 38 38 38 39 40 41 40 39 38 37 36
22 24 27 28 30 31 31 31 30 29 29 29 30 31 31 32 33 32 31 32 33 33 32 32 33 34 34 35 35 34 35 36 37 36 35 35 36 36 37 38 38 39 39 40 41 42 43 43 42 40 38 37 37 37 38 39 40 40 40 39 39 39 38
21 23 25 26 28 29 30 31 30 30 30 30 30 31 32 33 33 32 31 32 33 33 33 33 33 34 35 36 36 35 36 37 37 36 36 36 37 37 38 39 39 40 40 41 41 43 43 43 42 40 37 37 37 37 38 39 39 39 39 40 40 40 40
21 22 24 25 27 28 30 30 30 30 30 30 31 31 33 34 34 32 32 33 34 34 34 34 34 35 36 37 37 36 36 37 37 37 37 37 37 38 39 40 41 41 41 41 42 43 44 44 43 41 39 37 37 37 38 39 39 40 40 41 41 42 42
21 22 24 25 27 28 30 30 31 31 31 31 32 32 33 34 34 33 33 34 35 36 35 34 34 36 37 37 37 37 38 38 38 38 37 38 38 39 40 41 42 42 42 42 43 44 45 44 43 42 40 39 38 37 38 40 41 42 42 42 42 42 43
22 22 23 25 27 29 30 31 32 32 31 32 32 32 33 34 35 34 34 35 37 37 36 35 35 36 37 38 38 38 39 39 39 39 38 39 39 40 41 43 43 43 43 43 44 44 45 45 44 42 41 39 38 38 39 41 43 44 44 44 42 42 42
23 24 25 26 27 29 31 32 32 32 32 32 32 33 34 35 36 36 36 37 38 38 37 36 36 37 37 38 38 39 39 40 41 40 40 40 41 42 43 44 45 45 45 44 44 45 46 45 44 43 41 40 40 39 40 42 44 45 45 44 42 40 40
25 25 26 28 29 30 31 32 32 32 32 32 33 34 35 36 37 37 38 39 39 40 38 37 37 37 38 39 39 39 40 41 41 41 41 41 42 43 44 46 46 46 46 45 45 46 46 45 45 44 43 42 42 41 42 43 45 45 45 43 41 40 39
27 26 26 27 29 31 32 32 33 33 33 34 35 35 36 36 38 39 40 40 41 40 39 38 38 38 39 40 40 41 42 42 42 42 42 42 43 44 46 47 47 47 47 46 46 46 46 46 45 44 44 44 44 43 43 43 44 45 43 41 39 39 38
29 29 28 28 29 31 32 32 34 34 35 35 36 36 36 37 39 40 40 41 41 40 39 38 38 39 40 41 41 42 43 43 43 43 44 44 44 45 47 48 48 48 47 47 47 46 46 45 45 44 44 45 45 44 44 44 44 43 41 37 36 37 37
30 30 31 30 30 32 32 33 34 34 35 36 36 36 37 39 40 41 41 42 41 40 39 39 39 39 41 42 43 44 44 44 44 45 45 45 45 46 48 49 49 49 48 47 46 46 46 45 45 44 45 45 45 44 44 44 42 40 38 35 34 35 36
30 31 32 32 33 34 34 35 35 35 36 37 37 37 38 40 41 42 42 42 41 40 39 39 39 41 42 43 44 45 45 45 45 45 46 46 46 47 49 50 50 49 48 47 46 46 45 44 44 44 45 45 44 44 44 42 39 37 35 33 32 34 35
31 31 32 33 33 35 36 36 37 37 37 37 38 39 39 40 42 42 42 42 41 41 39 39 40 42 44 45 45 46 46 45 45 46 46 46 47 49 50 51 50 49 48 47 46 46 45 44 44 44 44 44 44 44 43 39 36 34 33 31 31 32 33
32 32 32 33 34 36 37 37 37 37 38 39 38 38 40 42 42 43 42 42 42 41 39 39 41 44 45 46 46 46 46 46 46 46 46 47 48 49 50 51 50 48 47 47 46 46 45 44 44 44 44 44 43 42 40 36 33 32 31 30 30 31 31
33 34 34 34 35 36 37 37 38 39 39 39 38 38 41 43 43 43 43 42 41 40 40 40 43 45 46 47 47 47 46 46 46 46 47 48 49 50 51 50 50 48 47 46 46 45 44 44 44 44 43 42 41 39 36 33 31 31 30 29 29 30 30
34 34 35 35 35 36 37 37 38 39 40 40 39 40 42 41 41 42 42 41 41 41 41 43 45 46 47 48 48 47 47 47 47 47 48 49 50 50 51 50 49 48 47 46 45 44 43 43 43 43 42 41 39 37 34 31 30 30 29 28 28 29 29
34 34 35 35 35 35 36 37 38 39 39 39 40 40 40 39 40 42 41 41 42 43 44 46 47 47 48 49 49 48 48 48 47 48 48 49 50 51 50 50 48 48 47 45 44 44 43 43 42 40 39 39 38 34 32 31 29 29 29 29 28 28 29
32 33 33 34 34 34 35 36 37 38 38 38 38 38 38 39 40 41 42 43 45 45 46 48 48 48 49 49 49 49 48 48 48 49 49 50 50 50 49 48 47 47 46 45 44 44 42 41 39 38 38 38 35 32 30 30 28 28 29 29 28 28 29
31 31 32 32 33 33 34 34 35 36 36 37 36 36 37 39 41 42 43 44 45 46 47 49 49 49 49 49 49 48 48 48 48 49 49 49 50 49 48 47 47 47 46 45 43 42 40 39 37 36 37 36 33 30 28 29 28 28 29 29 28 28 29
30 30 31 32 32 33 33 34 34 35 35 36 36 37 39 41 42 42 43 44 45 46 48 49 49 49 48 48 48 48 48 48 48 48 49 48 48 47 47 47 46 44 42 41 40 38 38 37 34 34 34 32 30 29 27 27 28 28 28 29 29 29 30
30 31 32 32 33 33 33 34 34 34 35 36 37 39 40 41 42 42 43 44 45 46 48 49 48 48 47 47 48 48 48 48 47 48 48 47 46 46 46 46 46 43 41 41 41 39 38 36 33 31 31 29 29 29 27 26 28 28 28 29 28 29 30
31 31 32 33 33 34 34 35 35 36 37 38 39 40 40 41 42 42 43 44 44 45 47 48 47 47 47 47 48 48 48 47 47 47 47 46 45 46 46 46 46 45 43 42 41 39 38 36 33 29 28 27 28 28 26 26 27 28 28 28 27 28 29
32 33 33 33 34 35 35 36 36 37 39 39 40 40 41 41 42 42 43 44 45 46 47 47 47 47 47 47 47 47 47 46 46 46 46 45 45 46 47 47 46 46 44 42 39 37 35 34 31 28 26 26 26 26 26 26 27 27 27 27 26 27 28
33 34 35 35 36 36 37 38 38 39 40 40 41 41 41 41 42 43 44 45 45 46 47 47 48 48 47 47 46 46 46 45 45 45 45 46 46 47 47 47 46 45 43 41 38 36 34 33 31 27 25 25 24 23 25 26 27 27 26 26 26 26 27
35 36 36 37 38 38 38 38 39 39 40 40 40 40 41 42 43 44 44 45 46 47 47 47 49 48 47 46 46 45 45 45 45 45 45 46 47 47 47 46 45 44 42 39 37 35 34 32 31 28 26 24 23 22 23 25 27 27 26 25 25 25 26
36 37 37 38 38 39 39 39 39 39 39 39 40 40 41 42 43 44 45 45 46 47 46 47 47 47 47 46 45 44 44 44 44 45 45 46 47 47 46 45 44 42 39 36 34 34 33 32 30 28 26 24 22 21 22 23 25 26 25 24 24 24 24
37 37 38 38 38 39 39 39 39 39 39 39 40 40 41 43 44 45 45 45 46 46 46 45 46 46 45 45 44 43 43 43 44 44 45 46 46 46 45 44 43 41 38 35 33 33 33 32 29 27 25 24 23 22 23 24 25 25 24 24 23 23 23
38 38 39 39 39 39 39 39 39 39 39 40 40 41 42 43 44 45 46 46 46 46 46 45 45 45 44 44 43 43 43 43 43 44 45 45 45 46 45 43 42 40 37 35 34 33 32 30 27 25 24 24 25 24 24 24 24 25 25 23 22 22 23
39 39 40 39 39 39 39 39 39 39 40 41 42 43 44 45 45 46 46 47 47 46 46 46 45 44 44 44 43 42 42 42 43 43 44 44 45 45 45 43 41 40 38 36 34 33 31 28 25 24 24 25 26 25 23 23 23 24 24 23 22 21 22
40 40 40 40 40 40 40 40 41 41 42 43 44 44 45 45 46 46 46 47 47 47 46 46 45 44 43 43 42 42 41 41 42 42 43 44 44 45 45 43 41 39 38 36 35 33 30 26 24 24 23 23 23 23 22 22 22 22 22 22 21 21 22
41 41 41 41 41 42 42 42 42 43 44 45 45 45 45 45 46 46 46 47 47 47 46 45 43 43 43 42 41 41 41 40 41 41 42 43 44 44 44 42 41 40 39 37 35 33 30 26 24 23 21 20 19 19 20 21 21 21 21 21 21 21 22
42 41 42 42 42 42 43 43 44 45 45 45 45 45 45 45 45 46 46 47 47 47 45 43 42 42 42 41 41 41 40 39 40 41 41 42 43 44 43 41 40 40 39 36 33 30 27 24 22 20 19 18 17 17 18 19 20 21 21 21 21 21 22
43 43 43 43 43 43 44 45 45 45 45 46 46 46 46 45 46 46 47 48 48 46 44 42 42 41 41 40 39 39 39 39 40 40 41 41 42 42 42 40 39 39 37 32 28 26 23 21 19 18 17 17 16 16 17 18 19 20 21 21 21 21 22
44 44 44 45 45 45 46 46 46 46 46 46 47 46 46 46 46 47 48 48 47 45 43 42 41 41 40 39 39 38 38 38 39 39 40 40 40 40 40 39 37 36 33 27 23 21 20 18 16 15 16 15 15 15 17 18 19 19 19 20 20 21 22

ECMWFFLT1_500_spd_009.txt.gz
Wind_Speed
20 22 23 24 24 24 24 24 22 22 24 25 26 26 26 26 27 27 26 26 26 27 27 28 29 29 29 29 29 29 29 30 31 31 31 32 32 33 34 34 34 34 34 34 34 35 36 36 36 37 38 39 39 40 41 42 43 43 42 42 41 42 41
20 22 23 24 26 26 26 27 25 25 27 28 29 28 28 28 28 28 28 27 27 27 28 29 30 30 30 30 31 31 31 31 32 33 33 33 34 34 35 35 35 35 35 35 35 36 37 37 38 38 39 40 40 41 42 43 43 44 43 42 41 41 41
20 22 24 25 26 27 28 28 27 28 29 30 31 30 30 29 29 29 29 29 28 28 29 30 31 31 31 32 32 32 32 32 33 34 35 35 35 35 36 37 37 37 37 37 37 37 38 39 39 40 40 41 42 42 43 44 44 44 44 43 41 41 41
20 21 23 24 25 27 27 27 27 28 30 32 32 31 31 31 30 30 30 30 29 29 30 31 31 31 32 33 34 34 33 34 34 35 36 36 36 37 37 38 39 39 38 38 39 39 40 40 41 41 42 43 44 44 44 45 46 45 45 44 42 41 41
20 21 22 22 22 24 25 25 26 27 30 32 32 31 31 31 31 30 31 31 30 30 31 32 32 32 33 34 35 35 35 35 35 36 37 38 38 38 39 40 40 40 40 40 40 40 41 42 42 43 44 44 45 45 46 46 47 46 45 44 42 41 41
20 20 20 21 21 22 22 23 24 26 28 30 29 29 30 31 31 31 31 31 31 31 32 32 32 33 34 35 36 36 36 36 37 37 38 39 39 39 40 41 41 41 41 41 41 42 42 43 43 44 45 46 46 46 47 47 48 47 45 44 43 42 42
19 20 20 20 21 22 22 21 22 24 26 28 27 28 30 30 31 31 31 32 32 33 33 33 33 34 35 36 37 37 36 36 37 38 39 39 40 40 41 41 42 42 41 42 42 42 43 44 44 45 46 46 46 46 47 48 48 47 46 45 44 44 44
19 20 21 21 22 24 23 19 21 24 26 27 27 28 30 31 31 32 32 33 34 34 34 34 35 35 36 37 37 37 36 37 38 38 39 40 40 41 41 41 41 42 42 43 43 43 44 44 45 46 46 46 46 46 46 47 48 47 46 45 46 46 47
19 21 22 23 23 24 23 19 19 23 26 27 28 29 31 32 32 33 33 33 35 36 36 36 36 36 37 38 38 37 37 37 38 38 39 40 41 41 42 42 42 42 43 43 44 44 44 45 46 47 46 46 46 46 46 47 47 47 47 47 47 48 49
21 21 23 25 24 25 24 21 21 23 26 28 29 30 32 32 33 33 33 34 36 37 38 39 38 38 38 39 39 38 38 38 38 39 39 40 41 42 42 43 44 44 44 44 44 45 45 46 47 47 46 46 45 46 47 47 47 47 47 48 48 48 49
22 23 24 25 26 26 26 25 25 26 27 29 29 31 32 33 33 34 34 35 38 39 40 40 39 39 40 40 39 38 38 38 38 39 40 41 42 43 44 45 45 46 45 45 45 45 46 47 47 47 47 46 46 46 47 48 48 47 47 47 48 47 48
24 25 25 26 27 27 27 27 27 27 28 29 30 32 33 34 35 36 36 37 39 41 42 41 40 41 41 41 40 39 39 39 38 39 40 41 42 44 45 46 47 47 46 45 45 46 47 47 47 47 47 47 47 47 48 49 48 47 47 47 48 47 47
26 26 27 27 28 28 27 28 28 28 29 29 30 32 33 34 36 37 37 38 38 40 42 41 40 42 42 42 41 41 40 39 39 40 41 43 44 45 46 47 47 47 46 45 46 46 47 47 46 47 47 47 48 48 49 49 48 47 48 48 48 47 45
28 28 29 29 29 29 29 29 29 30 30 30 31 32 32 34 36 37 38 38 36 38 41 42 41 43 43 42 43 42 41 40 40 41 43 44 46 47 47 48 47 47 46 46 46 47 47 47 47 47 47 48 48 48 49 49 47 47 49 48 47 45 42
32 31 30 30 31 31 31 31 31 31 31 32 32 32 32 34 36 38 38 36 35 36 40 42 43 44 44 43 43 42 40 40 41 42 44 45 47 48 48 48 48 47 47 46 47 47 47 48 48 47 47 48 48 48 48 48 48 49 49 47 45 42 39
34 33 32 31 32 32 33 33 33 33 33 34 34 33 34 35 38 38 36 34 36 37 39 43 45 45 44 43 42 40 40 42 43 44 46 47 48 49 48 49 48 48 48 47 47 48 48 48 48 48 48 49 48 48 47 46 46 47 45 44 42 39 36
32 33 32 32 33 33 34 34 34 35 35 35 36 36 36 37 39 39 35 34 36 38 40 45 46 46 45 43 41 41 42 43 44 46 48 49 49 49 49 49 49 49 49 48 48 48 49 49 48 48 49 48 47 47 46 44 43 42 42 41 39 36 33
32 32 33 33 33 33 34 35 36 36 36 37 37 38 38 39 40 40 36 35 38 40 43 46 46 45 45 43 42 43 44 44 45 47 49 50 50 50 50 50 50 49 49 48 48 48 48 48 48 48 47 46 46 45 44 43 42 40 39 38 36 33 32
32 32 33 34 34 34 34 35 36 36 37 37 36 37 38 39 39 38 38 39 42 43 44 46 46 45 44 43 43 44 45 45 47 49 50 50 50 50 50 50 50 50 49 49 48 48 48 48 48 48 46 45 45 43 41 39 39 39 37 35 33 32 31
30 31 32 33 34 34 34 35 35 35 36 35 35 36 37 37 36 37 40 42 43 44 45 46 45 45 45 45 45 46 45 47 48 49 50 51 51 51 51 50 49 49 49 48 48 48 48 48 48 48 46 45 44 42 41 39 39 38 35 31 31 31 31
28 29 31 31 33 33 33 34 34 34 34 33 34 36 36 35 36 38 40 41 42 44 45 45 45 46 46 46 46 46 47 48 49 50 51 51 51 50 50 49 49 49 48 48 48 47 47 47 48 47 45 44 43 42 43 42 40 38 34 30 28 29 30
27 28 29 29 30 31 31 31 31 31 31 32 33 34 34 35 37 38 39 41 42 43 44 45 47 47 47 46 46 47 48 49 50 51 51 51 50 49 49 48 48 48 48 47 47 47 47 47 47 45 44 43 42 42 41 40 39 36 33 29 26 27 28
27 27 27 27 28 28 28 28 29 29 30 31 32 32 33 35 37 38 39 40 42 43 44 45 47 47 46 45 45 47 48 49 50 50 50 50 49 48 47 47 47 48 47 47 47 47 47 47 46 44 43 42 42 41 39 37 36 34 32 29 25 25 26
27 26 26 27 27 27 28 28 28 28 29 30 30 31 34 36 36 38 39 40 42 43 44 45 46 47 46 45 45 46 48 49 50 49 49 49 48 47 46 46 46 46 46 46 47 47 47 47 45 44 43 42 41 40 37 35 34 33 31 28 25 24 26
29 28 29 29 28 28 28 28 28 29 29 30 31 32 35 36 37 38 39 41 43 43 44 45 46 46 45 45 46 46 47 49 49 48 47 48 48 47 46 45 44 44 44 45 47 47 46 45 44 43 42 41 40 39 36 34 33 32 30 28 26 25 26
31 31 31 31 30 30 30 29 30 30 31 32 33 34 36 37 37 38 39 41 43 43 44 45 46 45 45 46 47 47 48 48 48 47 47 48 48 47 45 44 43 44 44 45 47 47 45 44 43 42 41 40 39 38 35 33 32 31 30 28 26 25 26
33 33 33 32 32 32 32 32 32 33 34 34 35 36 37 37 37 38 39 41 42 42 44 46 46 46 46 47 47 48 48 48 48 48 48 47 46 46 44 44 44 44 45 46 47 47 45 43 43 42 40 39 38 37 34 32 31 31 29 27 24 23 24
34 34 34 34 34 34 34 34 34 35 36 36 37 38 37 37 37 38 40 41 41 43 45 46 46 46 47 47 48 48 48 48 48 48 47 45 44 44 44 44 44 45 45 45 46 46 45 44 43 41 40 39 37 35 34 31 30 29 28 26 24 23 24
34 35 35 35 35 35 35 36 36 37 37 38 38 38 38 38 39 39 40 41 42 43 45 46 46 46 46 47 48 48 49 48 48 46 45 43 44 45 45 45 45 45 45 45 45 46 45 44 43 41 40 39 37 35 33 31 29 28 27 26 24 25 25
35 36 36 36 37 36 37 37 37 38 38 39 39 39 39 39 40 41 41 41 42 44 45 46 46 46 47 47 47 48 49 48 47 46 44 43 45 45 45 45 45 45 45 45 45 45 45 44 43 41 39 38 38 35 33 30 28 27 27 26 25 25 25
36 36 36 37 37 37 38 38 38 38 39 39 40 40 40 40 41 41 42 42 43 45 46 47 48 48 48 48 47 48 47 46 45 46 46 44 44 45 44 44 45 45 44 45 45 44 43 42 41 41 40 38 36 34 32 29 28 27 27 26 25 24 24
37 36 36 37 37 37 38 38 39 39 40 40 40 40 40 41 42 42 43 44 45 46 47 48 49 48 48 48 48 48 47 45 45 46 46 45 44 44 44 44 44 43 44 44 44 43 42 41 41 42 40 36 33 32 30 29 28 28 27 26 24 24 24
38 37 37 37 37 38 38 38 39 40 40 41 41 40 42 44 44 44 45 45 46 47 47 47 49 49 48 47 48 47 46 45 44 43 44 44 43 42 42 43 43 43 43 42 41 40 41 42 42 42 40 35 31 31 30 29 28 27 26 24 23 22 22
38 38 37 37 38 38 38 38 39 40 41 41 42 42 43 45 45 45 46 47 48 48 47 47 48 49 48 47 47 47 45 44 43 42 43 43 43 41 41 42 42 42 42 41 40 40 41 42 42 41 40 34 30 29 30 29 27 24 23 22 21 20 20
37 37 36 37 38 38 38 39 40 41 41 42 43 43 44 44 45 47 48 48 48 48 48 48 48 48 47 46 46 46 46 44 43 43 42 42 42 41 41 41 41 41 40 40 41 41 40 40 40 40 38 32 27 27 27 25 23 22 20 20 19 19 19
35 36 37 38 40 41 41 42 42 43 43 43 44 44 44 44 45 47 49 49 49 48 48 48 48 47 47 46 45 46 45 43 43 43 41 40 41 41 40 40 40 39 39 40 40 40 39 38 39 39 35 27 24 24 24 21 20 20 19 19 19 19 19
37 37 38 41 43 45 45 45 45 44 44 44 44 45 46 46 47 48 49 49 48 48 48 48 48 48 47 46 45 45 44 43 43 42 41 40 40 40 40 39 38 38 38 39 39 39 38 37 38 36 31 23 20 20 21 19 18 18 18 19 19 19 19
38 39 40 43 45 47 47 46 46 45 44 45 46 47 48 49 48 48 48 48 48 48 49 49 49 49 48 47 46 44 42 42 42 42 40 40 39 39 39 39 37 37 38 38 38 37 36 36 36 33 27 21 18 18 18 17 15 16 17 18 19 19 18

ECMWFFLT1_500_spd_012.txt.gz
Wind_Speed
24 26 24 18 18 20 19 18 19 20 23 23 22 23 23 25 28 28 26 26 25 25 25 26 27 26 25 25 26 27 28 28 29 30 30 30 30 31 31 31 32 32 33 34 34 35 35 36 36 37 37 38 38 39 40 40 41 41 42 42 42 43 43
26 26 25 20 18 21 21 20 21 21 22 24 25 25 25 27 30 30 28 27 27 26 26 26 27 28 27 26 26 27 29 30 31 32 32 32 32 32 33 33 33 34 34 35 35 36 36 37 37 38 38 39 39 40 40 41 41 42 42 42 43 43 44
26 26 26 25 21 20 21 20 21 22 22 24 26 26 26 26 29 31 29 27 27 26 27 27 28 28 28 27 27 28 30 31 32 33 33 33 33 33 34 34 34 34 35 36 36 36 37 37 38 38 39 39 40 40 41 41 42 43 43 43 43 43 44
25 22 25 28 24 19 19 19 20 23 22 22 24 26 25 25 29 30 27 25 26 26 27 27 28 28 28 28 28 29 31 32 33 34 35 35 34 34 34 34 35 35 36 36 36 36 37 37 38 39 39 39 40 40 40 41 42 43 43 43 43 43 44
24 21 22 26 24 18 17 18 20 24 24 22 23 26 24 24 27 29 25 24 24 25 27 28 28 29 29 29 30 30 32 33 34 35 36 36 35 35 35 35 35 35 36 36 37 37 37 38 38 39 39 40 40 40 41 42 43 44 43 43 44 44 45
25 25 23 24 23 18 16 18 20 24 25 23 23 25 24 24 27 28 25 24 24 25 27 29 30 30 30 30 30 31 33 34 35 36 37 37 36 36 35 35 35 36 36 37 37 37 38 39 39 40 41 41 41 41 43 43 44 44 44 44 44 45 47
24 26 26 25 25 22 18 18 19 23 24 23 22 23 23 24 27 28 25 24 25 27 28 30 31 32 32 31 31 32 34 34 35 37 37 37 36 36 35 35 35 36 36 37 38 38 39 39 40 41 42 43 43 43 44 44 45 46 46 46 46 47 48
22 23 24 24 25 24 20 17 19 21 23 22 20 21 23 25 28 28 26 25 26 28 29 31 32 33 34 33 33 34 34 35 36 37 37 36 36 35 35 35 35 35 36 37 38 39 40 40 41 43 43 44 44 44 44 44 45 46 47 47 48 48 48
21 21 23 22 24 26 21 19 20 21 22 22 20 21 24 28 30 29 27 25 27 30 31 32 33 34 36 36 35 35 35 34 36 37 36 36 36 36 35 35 35 36 36 37 38 39 40 41 42 43 44 44 45 45 44 44 45 47 47 48 48 48 48
22 24 25 23 24 27 24 21 22 22 23 24 22 23 25 29 31 30 27 26 28 31 33 33 34 35 37 38 36 34 34 35 36 37 37 36 36 35 35 35 36 37 37 38 39 40 41 42 43 44 44 44 44 45 44 44 46 47 47 47 48 48 48
25 26 28 26 25 28 27 25 25 25 25 26 25 25 26 29 31 30 28 27 30 33 34 34 34 35 37 38 37 36 36 37 37 38 38 37 36 35 35 36 37 38 39 39 41 42 43 43 44 44 44 44 45 45 45 45 45 46 47 48 48 48 48
25 27 28 27 27 29 29 28 28 28 28 28 28 26 27 29 30 30 29 29 32 34 34 33 34 36 37 36 36 36 38 39 39 39 38 36 35 36 37 38 38 39 40 41 42 43 44 45 45 45 45 45 45 46 46 46 45 46 46 48 48 48 48
25 27 29 29 30 31 30 28 29 31 31 31 30 28 28 30 31 31 31 31 34 35 33 33 34 37 37 35 34 36 38 40 40 39 38 37 36 37 38 38 39 40 42 43 44 45 46 46 47 47 47 47 47 47 46 46 46 47 47 47 47 46 47
28 28 29 31 33 33 32 30 29 30 31 31 31 30 30 31 32 33 32 32 35 35 34 34 35 36 37 34 34 37 40 40 39 38 37 37 38 39 39 39 39 41 44 45 46 47 47 48 48 48 48 48 48 48 47 47 48 48 48 47 45 45 46
32 32 31 33 35 36 35 33 31 30 29 29 30 30 30 32 34 34 33 33 35 36 36 36 36 36 36 35 36 40 42 41 39 37 37 38 39 40 40 40 41 43 45 46 47 48 49 49 49 49 49 49 49 49 49 48 48 49 50 49 47 46 46
32 34 34 35 37 38 37 35 32 29 28 29 30 31 32 33 35 35 33 33 35 36 37 37 35 35 36 37 40 44 44 41 39 38 39 40 41 41 41 41 43 45 46 47 48 49 49 50 50 50 50 50 49 50 50 49 48 49 50 49 47 47 47
31 34 36 38 39 38 38 36 32 28 29 30 31 32 33 34 35 35 34 34 35 36 37 36 35 36 39 41 43 45 43 41 40 40 41 41 42 42 42 44 45 46 48 49 50 50 50 51 51 51 51 50 49 50 51 49 48 49 48 48 47 47 47
32 34 35 38 39 38 36 35 34 31 30 31 32 33 34 33 34 34 34 36 37 36 35 34 33 37 42 44 44 43 41 40 41 42 42 43 43 43 45 46 47 49 50 51 51 51 51 51 51 51 51 50 50 50 50 49 48 48 47 46 46 46 44
33 33 33 35 36 36 34 32 33 32 31 32 34 34 32 31 32 33 36 37 37 35 34 32 34 40 45 45 43 41 41 41 42 43 44 45 44 45 47 49 50 51 51 52 52 52 52 52 52 52 51 50 49 49 50 49 48 47 46 45 45 44 42
32 32 33 33 32 33 31 29 30 30 29 32 34 32 28 29 31 34 36 37 37 34 31 31 36 41 44 44 42 41 41 42 42 43 45 46 46 47 49 51 53 53 53 53 53 52 52 52 51 51 50 48 48 48 49 48 48 47 46 44 44 43 39
33 32 33 31 29 29 28 27 27 27 28 30 31 30 28 29 32 35 37 38 38 35 32 33 37 40 41 42 41 41 42 42 43 44 46 47 48 48 49 52 53 53 53 53 53 53 53 52 51 50 49 48 48 47 47 48 47 46 45 44 42 40 37
35 32 30 28 26 26 25 25 25 26 27 28 29 29 29 31 35 39 40 37 34 33 34 37 38 39 40 41 41 42 42 43 44 45 47 49 49 50 50 51 51 51 52 52 52 51 50 49 49 49 48 47 47 47 47 48 47 44 43 43 41 38 34
33 30 28 26 25 25 25 24 24 25 26 27 28 29 29 32 37 40 38 35 32 32 35 38 37 38 40 41 42 42 42 44 44 45 47 49 51 52 52 52 51 50 50 49 48 48 47 47 47 47 47 46 46 47 47 47 45 43 42 41 39 36 32
32 30 29 28 27 27 26 25 26 26 27 28 28 29 30 32 35 36 34 33 34 36 39 38 37 39 41 41 42 42 43 44 45 46 48 50 52 53 53 52 52 50 48 47 46 45 45 45 45 46 46 46 46 46 45 43 42 41 41 39 37 35 31
35 34 32 31 29 28 28 28 27 28 28 29 30 30 31 32 33 34 33 33 35 37 38 37 38 41 42 42 42 43 44 46 46 47 49 50 52 53 53 52 51 50 49 48 45 43 43 44 44 45 45 45 46 45 43 40 39 39 38 37 36 33 30
36 35 33 32 30 29 29 29 29 29 29 30 32 32 32 32 33 34 33 34 37 37 37 38 39 42 42 42 42 44 46 47 48 49 50 50 52 53 52 52 52 51 50 47 43 41 42 43 44 43 44 45 45 43 41 39 37 36 36 35 34 32 29
37 37 35 33 30 30 31 30 30 30 31 32 34 34 34 34 33 33 34 36 37 37 37 39 40 41 42 42 43 44 46 48 49 49 50 50 51 51 51 52 52 51 50 47 43 41 42 43 44 43 42 43 42 39 39 38 36 34 33 32 32 30 28
38 40 38 34 30 31 31 30 30 32 33 35 36 35 34 33 31 32 34 35 35 36 38 40 41 41 42 43 44 45 46 48 49 49 50 50 50 51 51 51 50 50 50 47 44 42 42 41 40 38 37 38 38 36 36 37 37 37 36 34 32 30 27
39 42 43 39 34 33 32 31 32 34 36 36 35 33 31 30 30 32 33 33 34 36 38 40 41 42 43 45 45 46 48 50 50 51 51 50 49 50 50 50 50 49 49 47 44 42 41 39 38 37 38 39 40 40 40 40 42 43 41 38 33 29 26
40 43 46 43 37 32 30 32 34 36 36 36 34 32 31 30 31 32 33 33 35 37 39 40 41 43 45 46 47 47 49 50 50 50 49 47 46 48 50 50 50 50 49 47 43 41 41 40 40 41 43 43 43 44 44 44 43 44 44 40 33 28 26
42 44 44 43 38 31 29 32 34 36 36 35 33 31 31 31 32 32 33 34 36 38 40 41 41 44 46 48 47 47 48 49 50 49 48 47 48 51 52 51 50 49 48 45 42 41 42 42 42 42 42 43 44 44 44 44 44 44 44 38 30 26 25
44 45 44 41 37 31 30 33 35 36 36 35 33 32 31 32 33 34 35 37 39 41 42 42 43 46 47 48 48 48 48 49 50 50 49 50 52 53 52 50 49 48 46 43 40 42 44 44 43 42 41 42 42 43 43 44 44 44 41 34 27 25 26
45 48 48 45 42 36 33 32 34 36 36 34 34 34 32 33 35 37 38 40 41 43 44 43 45 47 47 47 48 49 48 49 50 50 50 52 54 54 51 49 48 47 46 43 43 45 45 44 44 43 42 41 41 41 43 44 43 42 38 33 29 27 26
45 49 49 46 44 39 35 33 35 37 36 35 35 34 33 36 38 39 41 42 43 45 45 44 45 47 48 49 49 50 49 50 51 51 52 53 54 53 51 49 47 46 45 45 46 47 46 44 44 43 43 42 41 41 42 43 42 41 37 33 30 27 24
43 43 41 39 39 35 34 36 38 37 35 35 36 35 36 38 40 41 44 45 46 46 46 46 46 47 49 50 50 50 51 51 52 53 53 53 53 52 51 49 47 45 45 45 45 45 45 43 42 41 42 41 41 41 42 42 41 40 36 30 27 24 22
40 38 35 36 38 37 38 39 39 38 36 36 37 38 38 40 41 44 47 48 48 48 47 46 47 48 49 51 51 52 52 53 54 54 54 54 54 52 49 48 47 46 45 44 44 44 43 42 40 40 40 39 39 40 41 41 39 37 32 26 23 22 22
43 42 39 39 43 47 47 44 41 41 40 39 39 40 41 42 44 47 49 49 48 49 48 48 48 49 50 51 53 53 54 54 54 54 54 53 52 50 49 49 49 47 45 44 44 43 42 40 39 39 38 38 38 38 39 38 36 32 27 23 21 21 20
44 43 42 42 46 50 50 45 42 43 41 40 41 43 44 46 48 48 49 48 48 48 49 49 50 50 51 52 53 53 53 53 53 53 53 52 50 49 49 49 49 47 45 43 43 42 41 40 39 38 38 37 37 36 35 34 31 28 25 22 21 21 19

ECMWFFLT1_500_spd_015.txt.gz
Wind_Speed
16 17 17 17 19 19 18 17 17 18 19 19 20 21 21 21 22 23 24 25 26 25 24 25 26 26 25 24 23 23 22 22 22 22 23 24 25 26 27 28 28 29 29 28 28 28 29 29 30 30 31 32 33 33 34 34 35 36 36 37 38 39 40
20 23 22 21 20 20 19 18 17 18 20 20 21 22 21 21 21 22 23 24 24 24 24 25 26 26 24 23 22 22 22 22 22 23 24 25 26 27 29 30 30 30 30 29 29 29 29 30 30 31 32 33 34 34 35 35 36 36 37 38 39 39 40
28 27 25 23 22 22 20 19 18 18 20 20 21 22 21 21 21 21 22 22 22 22 24 25 25 25 23 22 22 21 22 23 23 24 25 26 27 28 29 30 31 31 30 30 29 29 30 30 31 32 33 34 34 35 35 36 36 37 38 39 40 40 41
28 27 26 24 24 23 19 18 17 18 19 19 20 20 20 21 21 20 21 21 20 21 23 25 25 25 24 23 22 22 22 23 23 24 25 26 27 28 29 30 31 31 31 30 30 30 30 30 31 32 33 34 35 35 36 36 37 38 39 40 41 42 42
21 23 26 25 24 23 20 19 17 17 18 19 20 19 19 20 21 20 19 19 19 20 23 25 25 26 25 25 24 22 22 23 24 25 26 26 26 27 28 29 30 31 31 31 31 30 30 30 32 33 34 35 35 36 37 37 38 38 39 40 42 42 43
20 23 27 26 25 23 22 21 18 17 19 20 20 20 19 20 20 20 19 18 18 20 22 25 26 26 26 26 25 23 22 23 24 25 25 25 25 26 28 29 30 31 32 32 31 31 31 31 32 33 34 35 37 38 39 39 39 39 40 41 42 43 43
25 27 27 24 24 24 23 20 18 18 19 20 21 21 20 20 20 21 21 20 21 22 23 25 26 27 27 25 24 24 24 23 24 24 23 24 25 27 29 30 31 32 31 31 31 31 31 32 32 33 35 36 38 39 40 40 40 41 41 42 43 43 44
28 30 28 23 22 21 20 18 16 18 19 21 22 22 22 21 22 23 23 24 24 24 25 26 27 27 27 26 25 25 25 25 25 24 23 25 27 29 31 32 32 32 31 30 30 30 31 31 32 33 35 36 38 39 40 41 41 42 43 44 44 44 45
30 30 28 24 21 20 20 18 17 18 20 22 23 24 24 23 24 25 25 27 27 26 27 27 26 26 27 27 27 26 26 27 27 26 25 26 29 31 33 33 32 32 31 31 31 30 30 31 32 34 35 37 39 40 41 42 43 44 44 44 45 45 45
30 28 27 27 24 21 19 18 18 20 21 23 24 26 27 26 26 27 27 28 29 28 28 27 26 26 27 28 28 26 27 28 28 27 26 27 30 32 34 34 33 32 32 32 32 31 31 32 33 35 37 39 40 41 42 43 43 44 45 45 45 45 45
30 29 27 27 26 22 20 18 19 20 21 24 27 28 29 29 29 30 30 30 29 29 29 27 26 26 27 28 28 27 27 28 27 26 26 28 31 34 35 34 34 34 34 34 33 32 33 34 35 36 38 39 41 42 42 42 43 45 46 45 45 45 45
29 27 24 24 24 25 24 22 22 23 24 27 29 30 31 31 31 31 32 32 30 28 28 27 25 26 28 29 28 27 27 27 26 26 28 31 34 36 36 35 35 36 35 34 33 33 34 35 36 38 39 41 42 43 44 44 45 46 46 45 45 45 45
26 25 23 22 23 25 26 26 24 25 27 28 29 31 31 31 32 33 33 32 31 29 27 26 25 27 29 29 28 27 27 27 26 28 30 33 36 37 37 36 36 36 35 34 33 34 35 37 38 40 42 43 44 45 46 46 46 46 46 45 45 45 46
24 24 23 23 23 23 25 27 26 26 29 31 32 32 32 32 33 34 34 33 32 29 27 26 26 28 29 29 27 28 29 28 27 29 32 33 35 36 37 37 36 36 35 34 35 36 37 39 40 42 44 45 46 46 47 47 47 47 46 45 45 46 46
24 26 26 25 26 25 25 27 29 28 30 32 34 34 33 33 33 34 35 34 33 30 27 26 27 28 28 27 26 28 30 29 29 31 33 34 35 37 37 37 36 35 36 36 37 38 39 41 43 44 45 46 47 47 47 47 47 46 45 45 45 45 45
26 29 30 28 28 28 27 28 30 31 31 32 34 34 33 32 32 35 35 35 34 31 29 28 28 28 26 24 25 28 28 27 28 32 33 35 36 37 37 37 36 36 37 37 39 40 41 43 45 46 47 48 48 47 47 46 46 46 45 45 45 45 45
29 31 33 32 31 30 30 30 31 32 31 31 32 34 33 32 32 34 36 36 35 34 33 31 29 27 24 22 23 26 26 26 28 30 33 34 36 37 37 38 37 37 38 39 41 42 44 46 47 49 49 49 48 47 48 47 46 45 45 45 45 45 45
33 34 35 35 34 34 34 33 32 32 32 32 33 33 31 29 30 34 37 39 39 39 36 31 28 27 26 24 24 26 27 28 29 30 33 35 36 37 38 39 39 39 40 41 42 44 45 47 49 50 51 50 49 49 49 48 46 45 45 45 45 45 45
33 35 36 37 37 36 36 35 33 32 33 33 32 30 29 29 31 34 36 36 38 40 37 34 33 33 32 31 31 32 30 30 31 32 34 35 37 38 39 39 40 40 41 43 43 45 46 47 49 50 51 50 50 50 50 47 46 45 44 44 44 44 43
32 34 37 38 37 37 37 37 34 33 33 32 30 30 30 31 32 32 31 31 33 35 35 38 40 37 33 35 35 32 31 32 34 34 34 36 38 39 40 41 41 41 42 43 44 45 46 48 49 49 50 50 50 50 49 46 45 45 44 44 44 42 40
34 35 37 36 36 37 37 35 33 32 32 31 31 31 31 30 30 30 31 31 32 33 34 36 36 31 29 32 32 30 32 35 35 34 35 38 39 41 41 42 42 42 42 44 45 46 48 48 49 49 49 49 49 48 46 45 45 45 45 44 41 36 32
37 37 36 34 36 38 36 34 33 33 32 32 32 32 31 30 30 32 33 33 33 36 36 32 27 23 25 29 30 31 34 35 34 35 36 38 40 42 43 43 43 43 44 45 46 47 48 49 50 51 50 49 48 45 44 43 43 42 41 39 34 29 27
39 38 37 37 38 38 36 35 35 34 33 33 32 32 32 31 32 34 36 33 29 28 26 24 22 23 24 27 30 32 33 33 34 36 37 39 41 42 44 45 45 45 46 47 47 48 49 49 49 50 48 46 44 41 40 40 39 37 36 33 31 31 32
38 38 39 38 37 35 34 35 36 35 34 33 33 33 32 32 34 36 36 31 28 26 27 29 31 30 27 29 31 32 32 33 36 37 39 41 43 44 47 48 47 47 48 48 49 49 48 46 46 46 46 44 42 40 39 39 38 38 38 38 39 40 40
39 37 36 35 34 33 32 34 36 36 35 34 33 34 33 33 35 36 34 32 31 32 33 35 36 34 32 32 32 32 33 35 37 39 41 43 45 47 49 48 46 45 46 46 45 45 43 43 45 47 48 47 44 43 42 40 40 42 44 45 44 43 42
36 31 31 33 33 33 33 36 38 38 36 35 34 34 34 34 34 36 36 36 36 36 36 37 37 36 34 33 33 33 35 37 39 40 42 44 45 45 44 43 42 44 46 46 46 45 43 44 45 47 49 47 45 44 44 42 42 44 45 45 44 43 42
34 31 32 34 35 35 35 38 40 41 40 37 35 36 36 34 33 34 36 37 38 38 39 39 37 35 34 34 34 35 36 38 39 41 42 44 45 45 45 47 48 48 48 47 47 44 42 43 45 47 47 46 45 44 44 43 44 46 45 45 45 44 43
35 34 33 33 34 34 35 39 44 47 46 43 38 36 35 34 33 34 35 37 38 38 38 36 35 34 34 34 35 35 37 38 39 41 43 44 46 48 50 51 51 48 48 48 47 44 43 46 49 49 47 45 43 42 42 43 45 46 45 45 45 44 43
38 37 35 33 34 34 36 41 46 47 47 45 39 36 36 34 33 33 34 36 37 36 35 35 34 34 34 34 36 37 38 39 40 42 43 43 45 49 50 50 49 48 49 51 50 49 50 52 53 50 47 46 44 42 42 44 46 46 45 45 44 43 43
39 38 36 35 37 37 37 42 46 45 40 40 37 34 36 34 30 31 32 33 35 36 35 35 34 34 35 35 37 39 39 40 41 43 44 44 45 48 50 50 50 50 51 53 54 54 55 55 54 52 50 47 45 43 44 45 45 45 44 43 42 42 42
36 35 34 35 38 39 38 41 46 42 34 37 37 33 34 30 27 28 29 32 36 37 35 34 33 33 35 36 38 40 41 42 43 44 45 45 46 47 49 50 51 51 52 55 57 57 57 56 55 54 51 48 45 45 46 47 46 44 43 41 41 41 41
35 34 34 34 36 39 39 41 44 41 34 39 40 33 31 29 25 26 29 33 36 36 33 33 32 32 34 37 39 41 43 44 45 46 46 47 47 48 49 51 52 53 54 56 57 57 57 56 55 54 51 48 46 47 48 47 45 43 41 40 40 40 40
35 36 37 35 36 39 40 40 42 41 37 41 43 36 33 31 27 28 33 35 34 33 32 32 32 33 36 39 42 44 45 46 47 47 47 48 48 49 50 52 53 54 55 56 57 57 56 55 54 53 50 48 48 48 48 46 43 41 40 39 39 40 39
37 38 39 37 37 40 40 39 41 40 37 42 46 39 34 32 30 33 37 35 31 31 32 33 35 36 38 42 45 46 47 47 48 48 48 48 49 50 51 51 52 54 55 56 56 56 55 54 52 51 49 48 48 47 46 44 42 40 39 38 39 39 37
37 38 38 37 37 39 40 40 41 40 39 41 45 40 35 34 34 36 38 35 33 32 34 36 37 38 41 44 46 47 48 47 48 48 48 48 49 50 50 51 52 53 54 55 55 55 54 52 51 50 49 48 46 45 44 42 40 38 37 37 38 37 35
38 38 38 37 36 38 40 40 41 43 42 40 45 46 43 40 38 40 42 40 36 34 34 36 38 40 43 46 47 48 47 47 48 48 48 48 49 50 51 52 52 53 54 54 54 54 52 51 50 48 47 45 44 42 41 39 38 37 36 36 36 34 32
39 39 39 38 37 38 41 42 43 44 41 35 39 44 43 40 41 44 42 38 36 36 37 38 40 42 45 46 47 48 48 48 49 49 49 50 50 50 52 52 53 53 53 53 53 51 50 49 47 45 43 41 40 39 37 36 36 35 34 35 34 32 30
39 40 41 41 40 41 43 44 44 45 43 39 41 45 47 48 49 46 40 39 41 42 41 41 41 42 43 45 47 48 49 49 49 50 51 51 51 51 52 52 52 52 51 50 48 47 45 44 42 40 38 37 37 36 35 34 34 34 34 33 33 31 30

ECMWFFLT1_500_spd_021.txt.gz
Wind_Speed
9 11 11 11 12 11 12 13 15 18 20 21 21 22 23 23 23 21 20 21 21 20 20 21 21 21 22 22 23 23 22 21 22 22 23 23 24 25 25 26 26 27 27 26 26 26 26 25 25 25 26 26 25 25 25 25 26 28 29 30 31 31 32
9 9 9 10 10 10 12 12 13 15 17 21 22 22 22 22 22 21 21 21 21 20 19 19 20 21 21 21 21 22 21 20 20 21 22 24 25 26 26 26 26 26 27 26 25 24 24 25 25 25 26 26 26 25 25 26 27 29 30 31 32 32 34
10 10 9 10 10 10 13 14 16 17 15 18 21 21 20 20 21 21 21 21 20 20 19 19 20 21 21 20 20 21 21 20 21 21 22 24 26 27 26 26 26 26 26 25 24 24 24 25 25 25 25 26 26 26 26 27 28 29 31 32 32 33 35
12 12 11 12 12 13 15 16 18 19 17 16 17 18 18 18 19 19 19 20 20 20 19 19 19 20 21 21 21 21 22 22 23 23 23 24 26 26 26 25 25 26 26 25 24 24 24 24 25 25 25 26 27 27 27 28 29 30 31 32 33 34 36
14 13 14 15 15 15 17 17 17 17 18 17 15 17 17 18 19 19 19 21 21 20 20 20 20 20 21 22 23 24 25 26 26 25 25 25 26 26 25 25 25 26 26 25 25 25 24 26 26 26 26 26 27 28 29 29 30 31 32 32 33 35 36
16 16 16 16 16 17 18 17 15 15 16 15 15 15 17 18 19 19 21 22 21 21 21 21 22 22 24 25 25 26 28 28 27 26 26 26 26 26 26 25 25 26 26 26 26 26 27 28 28 27 27 27 29 30 30 31 31 32 32 33 34 36 37
19 18 17 16 17 19 19 17 15 15 15 15 15 15 15 17 18 19 21 21 22 22 22 23 25 26 27 27 29 30 30 29 29 27 27 27 27 27 28 27 27 26 26 27 27 28 29 30 29 28 28 29 30 31 31 32 32 33 34 34 35 36 37
20 18 16 16 18 18 18 18 17 16 17 17 16 15 16 16 17 19 20 21 22 23 24 26 27 28 28 30 32 33 31 30 29 28 28 28 28 28 30 30 29 27 27 27 27 28 29 30 29 29 30 31 32 33 33 33 34 35 36 36 37 37 38
21 18 16 17 17 16 16 17 16 17 18 17 15 14 15 16 17 19 20 22 23 24 26 28 29 29 30 32 34 35 34 33 31 30 29 29 29 29 30 32 31 29 27 27 26 27 30 31 30 30 31 33 34 34 34 35 36 37 38 38 39 39 39
20 18 18 17 16 16 17 16 16 16 16 14 12 12 13 15 16 18 20 22 24 26 28 30 31 31 32 34 34 35 36 35 34 33 31 29 29 30 31 33 33 30 28 28 28 29 31 32 32 31 32 33 34 34 35 36 37 38 38 38 39 40 40
19 19 19 18 18 19 19 17 16 16 14 13 13 14 15 15 16 17 19 22 25 27 29 32 33 33 34 36 35 36 37 35 35 36 34 32 31 31 31 33 33 31 30 29 30 30 31 33 33 32 32 34 34 35 36 37 38 38 38 38 39 39 39
19 20 20 19 20 21 19 16 14 13 13 13 14 16 16 17 17 19 20 22 25 28 30 32 34 35 36 36 35 37 40 38 37 37 35 35 35 32 31 33 34 33 31 31 31 30 29 31 32 32 33 34 35 36 37 39 39 39 39 40 41 41 41
20 21 21 20 22 22 18 15 14 14 16 18 19 20 20 20 21 22 23 25 26 28 30 32 35 36 37 37 35 37 41 42 40 37 35 36 35 33 33 34 34 33 32 32 30 27 27 30 32 33 34 34 36 37 38 39 40 41 42 43 42 40 38
21 22 22 22 23 22 19 18 18 19 20 23 25 25 25 25 26 27 28 29 30 31 32 34 36 37 38 40 40 40 40 40 39 38 36 35 33 33 34 35 35 35 34 32 29 27 29 31 32 33 34 35 37 38 39 40 42 43 43 41 38 36 35
23 23 24 24 25 25 23 21 21 21 22 24 26 26 26 27 28 29 30 31 33 34 35 37 38 38 40 42 41 39 40 40 38 38 36 34 33 34 35 36 36 37 35 32 29 29 32 33 33 34 35 37 39 40 40 41 41 40 40 40 38 37 38
24 25 26 26 27 27 26 24 24 23 22 23 25 25 25 26 26 27 29 31 34 35 37 38 39 41 43 43 41 40 42 44 41 37 34 35 36 36 37 38 38 37 36 31 29 32 36 36 36 36 37 39 41 40 39 39 39 41 42 41 39 39 40
26 27 28 28 29 28 28 28 28 28 27 28 28 27 27 27 26 27 30 33 35 38 39 40 40 42 43 45 46 44 43 42 39 34 31 34 36 38 39 39 38 36 34 31 31 36 38 37 37 37 38 40 41 39 38 39 41 43 43 42 40 39 39
29 29 29 29 30 29 30 32 33 33 33 32 31 30 30 29 29 31 34 36 38 40 41 41 41 42 44 46 47 44 40 37 34 32 31 33 36 38 38 38 37 32 28 29 32 36 37 37 38 38 39 40 41 39 38 40 42 43 42 40 39 38 40
30 31 31 31 31 31 33 35 35 35 34 33 33 34 34 33 34 35 37 39 40 41 43 43 42 43 44 46 44 40 37 35 34 36 37 37 38 37 35 35 33 27 25 29 32 34 36 38 39 38 38 40 41 40 39 40 42 42 40 37 37 40 44
31 32 34 34 33 34 36 38 37 36 35 34 35 37 37 36 36 37 39 41 42 44 45 45 44 43 43 43 40 37 38 38 38 40 41 41 40 36 31 30 27 25 28 32 32 34 37 38 39 38 38 39 40 41 40 40 41 41 39 39 41 45 48
33 34 35 35 35 35 38 39 38 37 37 37 38 38 36 35 37 39 41 43 45 46 46 45 44 43 42 42 42 42 42 41 40 39 37 35 33 29 26 26 27 30 33 33 33 35 38 39 38 38 37 39 41 42 42 42 42 40 40 42 45 47 48
36 36 36 35 35 37 39 40 41 41 41 40 40 39 37 38 41 43 45 46 46 46 45 44 43 44 45 46 47 45 42 39 39 37 32 28 25 23 25 29 31 32 32 32 34 37 38 38 37 37 38 40 42 43 44 43 42 40 42 45 47 48 48
40 39 37 35 37 39 41 42 43 43 43 42 42 42 43 46 48 47 46 46 45 44 44 44 44 45 47 49 50 46 43 41 39 34 29 26 25 26 29 32 32 32 32 32 35 36 36 36 37 37 39 41 42 44 42 41 41 44 46 48 48 49 50
40 39 38 39 40 42 42 42 42 43 43 43 44 45 48 51 49 46 44 43 43 44 45 45 45 45 46 50 52 48 44 42 40 38 37 36 32 30 31 33 34 32 31 32 34 35 36 37 37 38 40 41 43 43 41 42 45 48 48 49 50 52 53
38 40 42 43 43 43 43 43 43 44 43 44 45 48 51 52 47 44 44 44 45 47 48 47 47 48 50 53 52 45 40 41 42 41 40 38 34 33 35 36 34 32 31 32 34 35 36 36 36 38 40 41 43 44 44 46 48 48 49 50 53 55 56
40 42 44 45 44 44 45 45 46 46 46 48 49 51 53 51 47 45 47 47 48 49 50 50 49 50 50 47 40 34 32 37 41 40 39 37 36 37 37 36 33 32 33 33 32 33 34 36 37 39 41 42 43 44 46 47 47 48 50 52 54 56 57
43 44 45 45 45 45 46 48 48 47 48 50 51 50 51 49 47 47 49 49 49 50 51 50 49 49 45 36 32 33 31 34 38 38 36 35 36 37 37 35 34 34 33 32 31 34 36 38 39 40 42 42 43 44 46 46 46 49 52 54 55 56 55
45 47 48 48 48 49 50 51 51 50 50 51 49 47 46 45 46 48 48 48 48 49 50 49 49 47 40 33 33 39 38 35 32 28 26 27 31 34 37 38 36 34 33 33 34 37 39 40 41 43 43 43 43 45 46 46 48 50 53 54 54 53 52
49 50 52 52 53 54 54 54 54 54 53 52 49 45 43 43 46 48 48 48 47 46 47 47 47 46 41 35 35 37 37 32 23 18 19 23 27 31 36 38 35 32 33 35 37 40 42 42 43 44 44 43 44 46 47 48 49 51 52 52 51 50 48
53 56 58 58 58 57 57 57 56 54 52 49 45 42 42 44 47 48 47 47 45 44 45 45 45 45 42 40 39 40 41 35 23 16 19 26 28 29 32 33 32 32 35 37 39 41 43 44 44 44 44 44 45 46 47 48 49 50 51 50 49 48 46
58 58 57 55 56 57 58 58 54 50 47 44 42 42 43 45 46 46 46 45 44 43 43 43 44 44 42 42 42 42 44 39 28 20 25 30 30 29 29 30 31 33 35 38 41 43 44 44 44 44 43 44 46 46 47 48 49 50 50 49 47 45 43
54 52 50 50 51 52 50 47 44 42 42 41 42 42 42 43 43 44 44 44 42 42 41 41 43 42 41 41 40 41 44 43 34 26 30 35 36 34 30 29 31 33 35 39 42 44 45 45 44 44 44 45 46 46 47 48 49 49 49 47 45 43 42
50 47 46 45 43 40 37 36 35 36 37 39 40 40 40 41 41 42 42 42 42 42 41 40 41 41 40 39 36 37 42 42 37 32 34 40 43 38 29 28 31 34 37 41 43 44 45 45 45 45 45 46 47 47 48 49 48 48 47 45 43 41 40
41 38 37 36 35 33 33 34 35 37 38 39 40 40 40 40 40 40 41 41 41 41 40 40 42 43 40 37 32 28 27 30 33 34 38 42 43 35 28 29 34 37 39 42 44 45 47 47 46 46 47 47 47 47 47 48 47 46 45 43 41 39 38
32 32 33 33 34 34 34 36 37 38 39 39 39 39 40 40 40 40 40 40 40 41 40 41 43 43 39 35 31 25 22 25 31 35 39 42 40 32 30 33 37 39 43 46 47 48 48 48 47 47 47 47 46 46 47 47 46 45 43 41 39 38 37
31 33 35 35 35 35 36 37 38 38 38 38 38 39 40 40 40 39 39 39 39 40 41 42 43 42 38 35 33 30 29 32 38 42 44 44 40 34 34 38 43 45 47 48 48 48 47 46 46 46 46 46 46 46 47 46 45 43 41 39 38 38 36
33 34 35 35 34 34 36 36 37 37 38 38 39 40 41 41 40 39 39 40 40 41 42 43 41 39 37 36 37 37 39 41 43 45 45 42 39 38 41 45 47 47 47 46 46 45 45 44 45 46 46 46 46 46 46 45 43 41 39 37 37 37 36
31 32 32 32 32 33 34 35 36 37 39 40 41 41 41 41 41 41 41 42 43 43 43 41 39 38 39 39 40 42 44 44 43 43 42 41 42 45 48 47 46 45 45 44 44 45 45 45 45 46 46 45 45 46 46 43 41 39 38 37 37 37 36

ECMWFFLT1_500_spd_024.txt.gz
Wind_Speed
10 9 10 9 10 10 9 8 9 11 12 13 15 17 19 21 22 22 22 22 21 20 20 19 19 20 21 21 21 21 21 22 23 23 24 24 25 25 24 24 24 25 26 27 27 27 28 28 29 28 26 24 24 24 24 23 23 23 23 24 25 26 27
12 10 10 9 9 8 8 8 9 10 11 12 13 14 16 19 21 22 22 21 20 20 19 18 18 20 21 21 20 20 21 22 23 23 23 24 25 26 26 25 25 26 27 27 27 28 28 29 29 28 26 25 24 25 25 24 23 23 24 25 26 27 28
15 13 11 11 10 8 9 10 10 12 12 13 13 13 14 16 19 21 21 20 19 18 17 17 18 19 20 20 21 21 22 22 23 23 23 24 26 27 26 26 27 28 28 28 28 28 29 29 29 28 26 25 25 26 27 26 25 24 25 26 27 28 29
16 14 12 13 13 12 12 12 12 13 13 14 14 14 14 14 17 19 19 18 17 17 16 17 19 19 19 20 21 22 23 24 24 25 25 27 28 28 28 27 27 28 29 29 28 29 29 29 28 27 26 26 26 27 28 27 26 26 26 27 29 30 30
18 16 15 14 13 14 14 13 14 15 15 15 14 14 13 13 14 15 17 18 18 18 18 19 19 19 20 21 23 24 25 26 27 28 29 29 30 30 30 29 28 29 29 29 30 30 29 29 28 27 27 26 27 28 28 28 27 27 27 28 29 30 31
17 15 15 14 14 15 14 13 14 15 16 16 16 15 13 11 11 12 14 16 17 18 18 18 19 19 21 22 24 26 27 28 29 29 30 31 31 32 32 31 29 29 30 30 31 30 30 29 27 27 27 27 27 27 28 28 28 28 28 29 30 31 32
15 14 15 15 16 16 14 12 13 14 15 15 16 16 14 12 11 12 13 13 14 16 16 17 18 20 22 24 26 27 29 30 31 31 32 33 33 32 32 32 31 30 31 32 32 31 31 30 28 26 27 27 27 27 28 28 28 28 29 30 30 32 33
15 16 16 17 18 17 14 12 13 14 14 14 14 14 12 11 10 11 12 13 14 15 16 18 19 21 23 25 27 29 31 32 32 32 33 34 35 37 35 34 35 34 33 33 33 32 33 32 30 28 27 28 28 29 29 29 28 29 30 30 31 33 34
16 16 17 19 19 17 14 14 15 15 14 13 12 11 10 9 9 11 12 14 15 16 17 19 21 22 24 26 28 30 32 33 33 33 34 34 37 40 38 37 37 37 36 36 33 32 34 34 33 31 29 30 30 30 29 29 29 30 30 31 32 34 36
18 17 18 20 20 18 16 15 15 14 12 10 8 7 7 9 11 12 14 16 17 18 19 21 23 24 26 27 29 31 33 34 33 35 36 36 39 41 39 38 38 37 37 37 35 34 34 35 35 34 32 32 30 29 29 29 30 30 31 32 33 35 37
18 17 19 21 21 19 17 15 14 12 8 6 5 6 7 10 12 14 16 18 19 20 22 24 26 28 30 31 33 34 35 35 35 36 37 39 40 40 38 38 38 36 36 35 34 34 33 34 35 36 34 32 29 28 29 30 30 31 31 32 33 35 37
17 17 18 20 20 19 16 14 13 11 9 7 6 8 9 11 13 16 18 20 21 23 24 26 29 30 32 34 35 36 37 38 38 38 39 42 42 40 40 39 38 37 36 34 33 33 34 34 36 36 34 30 28 28 30 30 30 30 31 32 34 36 37
17 17 18 20 19 17 15 13 12 11 11 11 10 11 11 13 15 16 18 21 23 24 26 27 29 30 33 35 36 36 39 40 41 41 43 44 43 43 43 41 40 39 37 35 34 34 35 36 36 36 33 29 29 31 32 31 30 31 31 33 35 36 37
19 19 19 19 19 17 15 15 14 12 12 13 12 12 12 13 15 17 19 21 23 24 26 27 29 32 34 36 37 39 40 40 40 40 41 42 44 45 45 44 44 43 38 36 36 36 36 36 35 35 32 29 31 33 33 31 30 31 33 34 36 36 37
19 19 19 18 18 18 16 16 16 15 14 13 13 13 14 15 18 20 20 21 23 25 27 28 31 33 35 37 39 41 41 40 39 37 37 39 43 45 44 42 41 38 35 35 36 36 36 34 33 34 31 28 31 33 31 29 30 32 34 35 36 37 37
19 18 18 18 19 19 18 18 18 18 18 18 17 16 16 18 19 21 21 21 23 25 27 30 33 34 37 39 41 43 43 43 42 41 39 40 41 40 40 39 37 35 34 35 36 36 33 32 33 33 30 29 31 32 30 29 30 33 34 36 37 38 39
23 22 20 20 20 21 20 19 20 21 22 22 22 21 20 20 21 22 22 23 25 26 27 30 33 36 38 40 42 44 44 44 46 46 45 42 37 35 36 36 35 33 35 37 37 35 33 33 33 30 28 30 33 32 30 30 31 33 34 36 38 39 41
25 24 22 22 23 23 22 21 22 23 25 26 27 26 24 24 24 24 24 25 26 26 26 30 34 37 39 41 42 43 43 44 46 47 45 40 36 34 33 34 34 33 34 37 37 35 34 32 29 28 30 34 35 32 31 31 33 34 35 37 38 39 40
26 24 23 24 25 24 23 23 23 25 27 29 31 30 28 28 28 28 27 27 27 27 29 32 36 38 39 40 40 41 42 44 47 47 41 37 37 36 32 31 33 33 34 36 36 32 30 28 27 30 34 36 34 31 31 32 34 35 36 37 38 40 41
29 27 26 27 27 26 25 25 26 28 30 32 34 35 33 32 32 32 31 31 31 32 33 35 38 39 39 39 39 41 43 45 49 48 40 35 37 37 34 33 34 34 35 34 29 25 24 26 29 32 34 35 33 31 31 32 34 35 36 38 39 41 42
30 30 30 30 29 28 27 29 31 33 35 37 38 38 36 36 36 36 35 36 36 36 37 38 40 40 41 41 41 43 45 47 50 48 40 38 38 38 39 39 34 31 30 27 23 23 27 31 32 33 34 34 33 32 32 33 34 35 36 39 41 43 43
32 32 31 30 30 31 32 34 36 38 38 38 38 38 38 39 40 39 39 39 39 39 40 42 42 42 43 44 44 46 48 50 50 46 40 40 39 39 40 38 31 27 26 25 25 29 32 34 33 34 34 33 33 32 32 32 33 35 37 40 43 44 43
34 33 32 32 33 34 35 36 38 39 39 39 39 40 41 42 42 42 42 41 41 42 44 45 45 45 46 46 46 47 50 51 50 46 41 41 43 45 42 35 30 30 31 30 30 33 34 34 33 32 32 32 33 32 30 31 34 36 39 41 43 43 43
33 32 33 34 34 34 36 38 39 40 41 42 43 44 43 43 42 43 44 44 45 46 47 48 49 49 49 48 47 48 50 52 50 47 44 41 43 45 40 33 30 30 29 29 31 33 34 34 32 30 30 32 32 31 30 34 37 39 41 43 43 43 42
34 33 33 33 34 36 37 38 40 41 43 44 45 45 44 43 43 45 46 48 49 49 50 52 52 51 51 50 48 48 51 51 49 47 44 39 39 39 36 34 33 30 24 24 27 30 32 33 33 32 32 33 33 32 34 37 41 43 45 45 43 42 42
34 33 33 34 37 39 39 40 42 43 44 44 45 45 44 44 45 48 50 51 51 51 53 53 52 52 53 51 48 48 50 50 48 46 41 38 37 35 34 37 37 29 21 19 22 26 30 33 35 35 34 35 35 35 37 40 43 45 46 44 43 42 43
35 36 38 40 42 42 43 44 45 44 43 44 45 46 47 48 49 51 52 52 52 53 53 52 52 53 53 49 47 48 50 49 48 45 41 39 36 32 33 38 35 25 17 18 22 26 29 32 35 36 36 36 36 36 38 41 44 45 44 43 42 43 44
39 40 42 42 43 45 46 47 47 44 44 45 47 49 51 52 53 53 53 54 54 54 53 51 52 51 49 48 48 48 48 48 47 45 43 40 37 32 31 33 30 24 20 22 25 28 30 33 35 35 33 33 34 36 39 42 44 44 44 43 43 44 44
40 41 41 42 44 46 46 47 47 47 47 49 50 52 52 53 55 55 54 54 54 53 51 49 49 48 47 47 48 47 46 46 46 45 43 41 39 34 29 31 34 31 28 28 30 30 30 31 32 31 30 32 35 38 40 42 42 43 43 43 43 43 43
44 45 46 46 47 47 46 47 48 49 50 51 51 52 54 56 58 57 55 53 52 51 48 47 46 46 46 46 46 45 45 45 45 44 43 41 40 35 31 34 38 35 32 33 34 34 32 30 28 29 31 34 37 39 41 42 42 42 42 42 43 43 44
46 48 49 49 49 48 48 49 51 53 53 52 52 53 55 57 58 56 53 50 48 47 45 44 44 44 44 44 44 44 44 44 43 42 41 40 39 35 32 33 35 34 35 37 37 38 35 31 29 31 34 36 38 40 42 43 43 42 42 43 43 44 45
45 47 49 50 49 50 51 54 55 55 54 54 57 58 57 56 54 50 46 44 42 41 41 41 42 42 42 42 42 42 42 42 41 41 40 39 37 33 31 33 36 38 40 39 39 40 38 34 33 35 37 38 41 43 44 44 44 43 43 44 45 46 46
46 48 49 49 50 52 56 57 54 52 54 57 59 58 54 50 46 43 42 41 40 39 39 40 41 41 41 41 41 41 40 40 40 40 40 38 35 32 32 34 35 37 38 39 41 42 39 37 38 39 39 41 44 46 46 45 44 44 44 44 45 46 46
50 51 51 53 54 55 57 57 54 52 52 51 49 46 43 41 41 42 42 41 40 39 40 40 40 40 40 40 41 40 40 40 40 41 40 37 35 34 34 34 32 33 36 40 43 42 40 39 41 41 42 45 47 47 46 44 44 44 44 44 45 46 45
55 54 55 56 57 56 57 58 57 55 50 44 40 38 38 38 40 42 41 40 39 39 39 39 39 40 40 41 41 41 40 40 42 43 41 37 35 34 33 31 31 33 38 42 43 41 41 42 42 44 46 48 47 45 43 42 43 43 43 44 45 45 44
48 49 49 49 48 46 47 48 47 46 44 41 40 39 39 39 39 39 39 38 38 38 38 39 39 40 40 41 41 41 41 42 43 43 41 38 35 33 32 33 35 38 41 42 42 42 43 44 46 47 48 47 45 42 41 42 42 42 43 45 45 44 44
35 36 36 36 35 34 35 35 37 38 39 39 38 37 36 36 37 37 37 38 38 39 39 40 40 40 41 41 42 42 43 44 44 42 39 35 33 34 37 39 41 42 43 44 44 45 45 46 47 47 45 43 41 40 41 42 42 43 45 46 45 44 44
32 32 32 32 31 31 31 32 34 35 35 35 34 34 35 35 36 37 38 39 39 40 40 40 40 41 42 43 44 44 45 45 42 39 36 36 37 40 42 44 44 44 45 45 44 45 46 47 46 44 41 39 39 40 41 42 44 46 47 46 45 44 44

ECMWFFLT1_500_spd_027.txt.gz
Wind_Speed
15 12 10 9 10 10 11 10 10 9 10 11 13 16 17 18 19 19 20 20 21 20 20 19 20 20 19 18 18 19 18 18 18 18 18 19 20 21 22 23 22 23 24 23 23 24 25 26 25 25 25 26 26 25 25 24 23 23 23 23 22 22 22
13 12 10 10 10 10 10 9 8 8 10 11 13 15 16 17 19 20 21 21 21 21 20 19 18 18 18 18 18 18 18 18 19 19 20 21 21 22 23 25 26 26 27 27 26 26 26 27 27 26 26 27 27 26 26 25 25 25 25 25 24 23 23
13 13 11 10 10 11 11 10 8 9 10 12 13 14 15 16 17 18 19 19 19 20 19 18 17 16 17 17 17 17 18 19 20 21 22 23 23 24 25 27 28 28 28 29 29 28 28 28 28 28 27 27 27 27 26 26 25 26 26 25 25 24 24
13 12 12 13 13 13 13 11 10 11 12 13 14 14 14 15 15 16 16 16 16 16 16 16 16 15 16 16 16 16 18 19 21 22 23 24 25 26 27 29 29 29 29 30 30 30 29 30 30 31 30 28 28 28 28 27 26 26 26 25 25 25 24
10 11 13 13 13 14 13 11 12 12 13 14 14 14 14 14 13 13 13 13 13 13 14 15 15 15 15 15 15 16 18 19 21 22 23 24 25 25 26 28 29 29 30 31 31 31 31 32 32 33 32 30 29 28 29 29 28 27 27 27 27 25 24
9 11 13 14 15 15 14 13 13 13 13 14 14 15 15 14 12 11 11 11 11 12 13 13 14 13 13 14 15 17 18 20 22 23 23 24 24 25 27 28 29 30 30 31 32 33 34 35 35 34 33 32 30 29 29 29 29 28 29 29 28 26 25
11 13 13 15 16 16 15 15 15 14 15 15 14 14 14 14 13 12 12 11 11 11 11 11 12 12 13 14 15 17 20 22 22 23 24 25 26 27 30 31 32 33 34 33 34 36 37 37 37 35 34 33 32 31 30 29 29 30 30 31 30 28 27
14 15 13 15 17 18 18 18 17 17 18 16 14 14 14 14 12 12 11 11 10 9 10 11 12 12 13 14 16 19 21 23 23 24 26 27 28 30 33 34 35 37 37 36 37 38 38 37 36 34 34 33 33 32 31 30 31 31 31 31 30 29 28
18 17 16 18 20 21 21 20 20 20 20 18 15 14 14 13 12 12 11 9 8 8 10 11 11 12 14 16 18 20 22 23 25 27 29 30 30 31 32 34 36 38 38 39 41 41 39 36 33 33 33 32 32 32 31 31 32 32 31 30 29 29 30
20 18 18 20 22 24 24 22 22 22 21 19 16 15 15 13 12 11 10 8 8 9 11 12 13 14 16 19 21 23 24 25 26 27 26 26 27 27 28 32 35 37 38 40 42 42 40 37 34 32 32 32 32 32 31 32 33 34 32 29 28 30 31
21 20 21 20 21 24 24 23 23 23 22 20 17 16 15 13 12 11 10 10 10 11 13 14 15 17 20 21 23 25 26 26 28 28 25 24 26 26 29 32 34 36 39 40 41 42 41 37 35 33 33 34 34 32 33 33 33 34 33 30 29 31 31
23 24 24 22 22 23 24 24 25 24 22 19 17 16 15 14 14 13 12 12 12 13 15 16 18 19 21 23 25 26 26 27 30 32 31 29 29 30 32 35 35 36 38 40 41 42 41 39 36 35 36 36 34 33 35 35 34 34 32 29 29 31 30
27 27 23 21 22 23 24 26 26 24 21 19 18 17 16 15 15 14 13 12 13 15 15 17 19 20 22 24 25 25 27 29 31 35 36 35 34 36 37 37 37 37 40 42 41 40 41 39 36 34 35 33 33 35 37 35 34 34 30 27 29 30 31
28 26 22 19 21 23 25 27 26 24 21 19 19 18 18 16 14 13 12 13 14 15 16 17 19 21 22 23 23 24 27 30 33 37 39 38 37 39 39 37 38 40 42 43 41 40 41 38 33 32 31 31 32 36 35 31 31 29 26 27 30 32 32
26 24 21 19 20 22 24 26 25 23 21 19 18 18 18 16 14 13 13 15 16 16 17 18 19 20 21 21 22 24 27 31 34 37 40 40 38 39 39 37 37 39 41 41 42 41 37 32 30 31 32 32 34 35 33 30 29 26 26 29 32 32 32
24 23 21 20 19 19 21 23 23 23 22 20 19 18 16 15 14 13 14 16 17 18 18 19 20 21 21 22 24 27 29 32 34 37 40 40 39 40 41 39 39 39 40 40 39 35 32 31 32 32 33 35 35 34 32 29 27 26 28 31 32 32 31
23 23 22 21 20 19 20 22 23 23 22 22 21 19 17 15 14 14 16 18 20 20 20 22 23 23 23 25 27 29 32 33 35 37 39 41 42 43 41 39 38 38 36 35 34 31 32 37 38 33 32 34 34 33 30 27 27 29 31 31 31 31 31
22 23 22 21 21 21 22 23 24 23 22 23 23 22 19 17 17 18 20 22 23 24 24 25 27 27 28 29 30 31 34 35 36 37 40 42 44 42 37 34 36 36 34 33 34 34 35 40 40 35 31 32 32 30 28 27 30 33 32 31 30 30 31
23 23 23 23 23 23 23 24 24 24 24 25 25 24 23 21 22 24 25 26 26 27 28 29 31 32 32 32 32 34 36 38 38 38 40 43 43 41 36 33 34 36 36 36 35 35 36 36 34 30 28 29 30 28 28 30 33 34 33 31 30 30 31
26 26 26 28 28 28 27 27 27 27 27 28 28 28 27 26 27 28 29 29 30 29 30 32 34 35 34 33 35 37 39 40 40 40 42 43 43 42 39 34 33 35 36 35 35 37 36 31 27 25 26 28 30 29 30 33 35 36 35 32 30 31 32
28 28 30 32 32 32 31 30 29 29 31 31 31 31 30 30 31 31 32 32 32 32 32 34 37 37 35 35 37 40 42 43 43 42 43 44 45 43 38 34 34 34 33 33 35 36 31 25 24 27 29 31 33 33 33 36 37 36 34 31 30 32 33
29 31 33 33 33 34 33 32 32 32 33 34 33 33 32 33 33 33 35 35 35 35 36 37 38 37 37 39 41 43 45 45 44 44 44 45 46 44 39 35 35 33 31 31 33 32 26 23 26 30 31 33 35 35 36 36 36 35 33 31 31 32 34
31 34 35 35 36 36 35 35 35 35 35 35 35 35 35 35 36 36 37 38 38 38 39 39 38 38 40 44 46 47 48 47 46 46 46 46 45 43 41 37 35 32 30 30 31 29 26 26 29 30 29 29 30 32 33 35 34 33 32 31 31 33 35
34 37 38 39 39 37 37 37 37 36 37 37 37 37 37 37 38 38 38 40 41 42 41 40 39 41 44 46 48 50 50 49 48 48 47 45 44 42 41 38 35 32 31 30 30 28 28 28 27 24 22 24 25 28 31 33 34 33 31 31 33 35 36
37 39 40 41 40 39 39 40 39 38 38 38 38 38 38 39 39 40 40 41 42 43 42 42 42 44 46 47 49 51 51 50 49 48 47 45 43 41 40 38 35 33 32 31 28 28 28 26 22 19 20 23 25 28 30 32 33 32 31 32 33 34 36
39 41 43 43 42 41 41 41 41 39 38 38 39 40 40 41 41 41 41 42 43 43 44 45 45 46 46 48 50 51 51 50 50 48 46 45 43 41 39 38 36 35 33 31 28 27 26 24 21 21 24 26 28 30 31 32 32 31 30 30 32 33 36
41 42 43 44 43 42 41 40 39 38 37 39 40 42 43 44 43 42 43 43 43 43 45 47 47 47 47 49 51 52 52 50 48 46 44 44 42 40 39 37 36 35 33 30 28 25 24 24 24 26 30 33 35 34 33 32 31 29 28 30 32 35 38
41 41 43 44 43 42 39 38 37 36 38 40 42 44 46 46 45 46 46 46 45 46 47 49 48 48 50 51 52 52 50 47 44 43 43 43 41 39 38 37 36 34 32 30 27 23 22 25 28 31 35 37 36 33 30 28 28 29 31 33 34 37 40
39 40 41 41 40 38 37 37 39 41 44 46 46 47 48 47 48 49 49 48 47 48 49 50 51 52 53 53 52 50 46 43 41 41 41 40 39 38 37 36 36 34 32 30 27 23 24 27 30 33 35 35 33 31 28 28 30 33 35 36 37 40 42
38 38 38 38 37 37 39 42 46 49 51 51 51 50 49 49 50 50 49 48 49 50 50 51 54 54 53 51 48 44 41 39 39 39 39 39 38 37 36 36 35 34 33 31 29 26 27 29 30 32 32 32 33 32 31 32 35 37 38 39 41 42 43
41 39 38 39 40 42 44 46 48 49 50 50 50 50 51 51 50 47 47 49 51 51 50 51 52 51 48 45 43 41 39 39 39 39 38 38 37 37 36 36 35 35 34 33 32 30 30 29 30 32 33 33 33 34 35 37 38 39 40 42 44 44 45
50 46 43 43 44 43 42 43 44 45 46 48 49 49 51 51 49 48 50 53 53 52 51 50 48 44 42 41 40 40 40 41 41 40 39 38 38 37 37 36 36 36 36 35 34 32 31 29 30 32 34 33 33 35 38 40 40 41 43 44 46 46 46
49 48 44 44 44 41 39 40 42 43 44 45 47 49 50 50 50 51 53 54 53 51 50 47 43 40 39 40 40 40 41 41 40 39 38 38 38 38 37 36 36 36 36 36 35 34 32 30 31 33 34 33 35 38 40 41 42 43 45 47 47 47 45
39 40 40 41 40 39 38 40 41 42 43 45 47 49 49 49 49 50 50 50 48 46 43 41 40 40 40 41 41 40 40 40 39 39 39 38 37 37 36 36 36 36 36 36 35 33 32 31 32 34 35 35 38 41 42 43 44 45 46 46 46 44 42
35 37 38 38 37 38 39 38 38 39 40 42 43 44 44 43 43 43 42 41 39 38 38 39 41 41 41 41 40 40 40 40 40 39 38 37 37 37 37 37 37 37 37 36 32 29 29 30 33 36 38 40 43 44 44 45 45 44 44 44 43 41 39
37 38 39 40 40 40 39 37 36 37 37 37 38 38 38 36 36 36 36 35 35 36 38 40 41 41 41 40 39 39 40 41 42 43 41 39 38 38 37 38 38 37 35 32 28 27 29 33 37 41 43 45 46 46 46 45 44 42 42 41 39 38 39
40 42 42 42 41 39 38 37 37 38 38 38 38 37 35 34 34 35 35 34 34 36 37 38 39 39 39 39 39 40 42 43 43 43 42 38 36 37 39 40 38 36 33 30 30 32 36 39 42 44 46 46 47 47 46 44 42 40 40 39 38 38 41
44 44 42 40 38 38 37 38 38 38 38 39 38 37 37 37 37 36 35 35 36 37 38 39 39 40 40 40 40 41 42 42 37 33 33 34 36 39 41 39 36 34 34 33 34 37 40 42 43 45 46 46 47 46 44 43 41 40 39 38 38 41 43

ECMWFFLT1_500_spd_033.txt.gz
Wind_Speed
26 24 20 14 11 13 15 17 20 21 21 19 19 19 19 18 17 18 19 20 20 20 19 19 18 18 19 19 19 19 19 18 18 19 19 18 17 17 17 17 16 16 16 17 17 18 18 20 21 22 22 23 24 25 25 26 26 26 27 27 26 26 26
23 21 18 13 9 10 12 15 17 18 17 18 18 18 17 16 16 16 17 18 18 18 18 18 18 19 20 21 21 20 20 20 19 19 19 18 18 18 18 18 17 17 18 18 18 19 20 22 23 24 23 24 25 26 27 28 29 30 30 30 29 28 29
20 18 16 12 8 8 10 12 14 14 14 15 16 16 15 14 14 14 15 15 15 15 15 16 17 19 20 21 22 21 21 20 20 19 19 18 18 18 18 18 18 18 19 19 20 21 23 24 25 25 25 26 27 28 29 30 32 33 33 32 32 31 31
21 18 17 14 11 10 11 12 13 12 11 11 13 13 12 12 12 12 13 13 13 14 14 16 17 18 19 19 20 20 20 20 20 20 19 18 18 18 18 18 18 19 19 21 22 22 23 24 24 25 26 27 28 30 31 33 34 34 35 35 34 33 33
24 22 20 16 14 12 11 13 14 13 11 10 12 13 12 12 12 11 12 12 13 14 15 16 17 17 17 18 18 18 19 19 19 19 18 18 18 18 17 18 19 19 20 21 22 22 22 24 25 26 27 28 30 31 33 35 36 35 36 38 38 37 36
25 23 20 16 18 17 14 13 14 14 14 13 13 14 14 14 13 11 12 12 13 14 16 17 17 17 17 17 17 17 17 18 18 18 18 17 17 17 17 17 18 20 20 21 22 23 24 26 28 28 28 29 31 31 32 35 36 36 37 37 38 38 37
25 22 19 20 21 21 19 17 15 16 16 16 16 16 16 15 14 13 13 12 13 15 16 17 17 17 17 17 17 17 17 18 18 17 16 16 16 16 17 18 20 21 21 22 23 23 24 26 29 30 30 30 31 31 31 33 36 38 39 38 38 37 36
23 24 22 23 23 23 24 22 20 18 17 18 19 17 16 16 15 14 13 13 14 15 15 17 17 17 18 17 17 17 17 17 16 15 15 15 16 17 18 20 21 21 20 21 22 22 23 26 28 30 30 30 30 31 30 31 34 38 40 39 38 36 33
27 26 24 25 24 23 25 25 25 24 21 20 20 19 19 18 17 15 15 15 15 15 16 17 18 18 19 18 17 17 17 16 15 15 15 16 17 19 19 19 19 18 19 20 21 22 24 26 28 29 29 27 28 29 30 31 33 36 38 37 35 33 31
30 25 26 27 24 24 26 27 27 26 23 21 21 21 21 21 19 18 17 17 17 17 17 17 17 17 18 18 18 18 17 15 15 16 16 17 19 20 19 17 16 17 19 21 22 23 25 26 27 28 28 27 27 28 30 31 32 33 35 35 32 30 31
27 25 29 29 25 26 27 26 25 24 21 20 20 21 22 23 22 21 20 19 18 18 19 17 15 16 17 18 18 18 17 16 17 17 17 18 19 19 18 17 17 19 21 23 23 24 26 27 28 29 29 28 28 28 30 31 30 30 32 34 32 32 33
26 26 30 28 26 27 28 26 24 23 21 19 19 22 23 24 24 23 22 21 20 19 18 17 16 16 18 20 19 18 17 18 18 17 16 16 17 18 18 19 20 21 23 25 25 25 26 28 30 30 31 31 30 30 31 31 31 30 31 33 35 36 35
33 29 31 29 28 29 28 27 25 24 24 21 20 23 24 25 25 24 23 23 22 20 18 17 17 17 19 21 19 18 18 17 16 15 13 14 15 18 20 21 22 22 23 26 28 27 27 28 30 31 32 32 31 31 31 32 33 31 30 33 36 37 35
37 35 33 32 31 31 30 29 27 26 28 25 23 23 24 25 25 25 25 25 24 22 19 18 18 18 20 20 18 17 16 16 15 13 13 15 17 20 21 22 23 23 24 26 28 29 29 29 30 31 33 34 34 32 33 35 35 33 32 33 36 37 34
37 38 37 36 35 33 32 31 29 29 29 27 26 25 25 26 26 26 25 25 25 23 20 19 19 18 19 19 17 17 16 15 15 15 16 18 20 21 22 22 23 25 27 29 30 32 32 30 30 32 34 36 37 36 35 35 35 35 34 34 35 35 33
37 38 41 41 38 35 34 32 31 31 30 29 28 27 27 27 26 25 25 25 26 24 21 19 18 18 18 17 16 15 14 14 15 16 18 19 21 22 23 23 25 28 30 30 32 33 34 33 32 33 33 35 37 37 35 33 34 36 35 35 35 33 30
39 39 42 43 40 38 35 33 33 32 31 30 29 29 27 26 25 25 25 26 25 24 21 19 18 18 18 17 16 14 13 14 15 16 18 20 22 23 25 26 28 30 31 32 33 34 35 35 34 34 34 34 36 36 34 33 34 35 35 36 36 33 29
40 39 41 42 42 41 37 34 34 32 31 31 31 30 27 26 25 24 24 24 23 22 21 19 19 20 19 19 18 15 14 14 15 16 18 21 23 25 27 29 31 33 34 34 35 36 36 37 37 36 35 34 33 34 34 34 34 34 36 37 36 34 31
39 38 40 41 43 43 39 35 33 32 31 32 32 31 29 26 24 23 23 22 21 20 20 19 20 21 22 22 20 16 15 17 18 19 20 22 24 26 28 31 33 36 38 39 39 39 39 39 39 39 38 35 33 33 34 34 34 35 37 37 36 36 34
40 39 41 43 43 43 40 35 32 32 31 32 33 32 30 27 25 25 24 23 21 20 19 18 19 20 23 24 22 19 19 21 23 24 24 25 27 28 30 32 35 37 40 42 43 42 42 43 43 42 40 36 33 33 33 33 34 35 36 37 36 35 35
41 40 43 45 44 42 38 32 30 31 31 32 33 33 32 30 28 28 26 23 22 21 20 19 19 20 23 25 25 24 25 26 26 27 28 29 30 31 33 34 36 39 41 42 44 45 45 46 46 44 41 37 34 34 33 33 34 35 35 36 36 35 36
44 42 44 45 44 40 34 30 30 31 31 33 35 34 34 32 31 29 27 25 25 24 23 23 22 23 25 27 28 29 29 29 29 29 30 32 33 34 36 37 39 41 41 43 46 48 47 49 48 44 40 37 35 34 33 33 34 34 34 35 35 36 38
49 48 48 48 44 38 33 32 33 33 33 35 36 36 35 34 32 30 29 28 27 26 26 26 26 26 28 30 31 32 33 33 33 33 33 34 36 37 39 41 41 43 43 44 47 50 50 51 48 41 38 37 36 34 34 34 32 32 34 35 35 36 38
47 47 46 46 44 39 34 34 36 35 35 36 37 38 37 35 34 32 31 31 29 28 29 29 29 30 30 32 34 35 35 36 36 36 36 37 39 41 43 44 45 45 46 46 49 52 53 51 45 38 35 36 36 35 35 34 31 31 34 35 36 36 37
42 42 41 42 44 41 37 37 38 38 38 38 39 39 37 37 36 34 33 34 33 32 32 32 32 33 33 35 36 37 37 38 38 39 39 41 43 45 46 48 49 49 49 49 51 53 52 47 39 34 33 34 35 36 35 33 32 32 33 35 36 36 37
38 39 41 43 44 43 40 40 40 40 40 40 40 39 37 37 36 36 36 37 36 35 35 35 35 36 37 37 38 39 39 40 40 41 42 44 46 48 49 50 52 53 52 52 53 52 48 41 35 32 32 33 35 36 34 33 35 34 33 34 36 36 36
35 37 41 44 46 46 44 42 42 42 42 42 41 39 37 37 37 38 39 39 39 39 39 38 38 39 40 41 41 41 41 42 42 43 44 47 49 50 51 52 54 55 54 54 54 50 44 39 35 34 33 34 34 35 34 35 36 35 33 35 36 36 36
33 35 40 44 46 48 47 44 44 44 44 43 42 41 40 40 40 40 40 41 42 43 41 40 41 42 43 44 44 43 42 42 43 45 47 49 50 51 52 53 55 56 56 57 54 48 41 39 37 36 35 35 35 34 35 36 36 34 34 35 35 35 36
32 35 40 43 46 49 49 48 46 45 45 45 44 43 43 42 42 43 43 43 44 44 43 43 45 47 48 48 46 43 41 42 44 47 49 50 51 51 52 53 56 58 57 56 52 45 41 40 39 37 36 35 34 35 36 37 35 33 33 34 35 36 36
32 35 38 41 46 51 51 49 47 46 46 46 45 44 44 44 43 43 43 43 44 44 45 46 49 51 52 49 44 41 41 43 45 47 49 50 51 51 52 53 55 56 55 52 47 42 40 41 40 38 35 34 35 36 37 37 35 32 32 34 36 37 36
33 33 35 39 44 49 50 48 46 46 46 45 44 44 44 43 44 44 43 44 44 45 47 49 51 55 54 47 41 40 42 43 44 46 47 48 49 49 51 52 53 53 50 47 43 42 42 43 41 37 35 35 36 38 38 37 35 33 34 36 36 36 37
35 34 35 36 39 43 46 47 46 46 46 45 44 44 44 44 44 44 44 45 46 48 51 53 54 55 53 45 40 40 41 42 43 45 45 46 47 47 49 51 51 50 47 45 43 43 43 42 40 37 36 37 39 40 40 38 34 34 34 34 35 37 38
37 35 35 36 37 40 44 46 47 47 47 46 46 45 44 45 45 45 46 48 50 52 55 54 54 55 52 44 39 40 41 42 44 45 46 46 46 47 49 50 50 48 47 45 44 43 42 41 40 38 37 39 42 42 41 38 34 34 34 34 36 38 37
35 34 35 36 38 40 43 46 47 47 47 47 46 45 45 46 47 47 48 50 51 53 55 55 57 57 51 42 38 40 42 43 45 47 47 47 47 48 49 49 49 49 48 46 45 43 43 42 41 40 40 42 42 42 41 38 34 33 35 37 38 37 36
36 36 37 37 38 40 43 45 46 46 47 46 45 45 46 47 48 49 50 50 50 52 54 56 57 54 46 40 39 40 43 45 47 49 49 48 47 48 49 49 49 49 48 47 46 44 43 43 43 44 44 42 41 40 39 36 32 33 36 39 38 35 35
37 37 38 39 40 41 43 44 45 46 47 47 47 48 48 48 49 50 50 50 50 50 49 49 49 47 43 41 42 43 44 47 50 51 50 49 48 48 49 49 50 50 49 47 46 45 44 44 44 43 42 40 40 39 37 34 32 35 37 38 37 33 33
39 39 40 41 43 44 45 46 48 48 49 49 49 48 47 47 48 48 49 49 49 47 45 43 43 43 44 44 45 46 47 49 51 52 51 49 48 48 49 49 50 50 49 47 46 45 44 44 43 42 43 42 40 38 37 38 37 38 36 37 37 35 34
40 41 42 44 45 47 48 48 48 47 48 48 48 48 47 47 46 46 47 47 46 46 45 43 42 43 46 46 47 49 50 50 51 51 50 48 48 49 49 49 50 50 49 47 46 45 45 45 44 44 45 42 39 39 42 43 41 41 40 40 40 38 37

ECMWFFLT1_500_spd_036.txt.gz
Wind_Speed
27 25 23 22 20 17 14 13 15 18 18 15 13 15 17 18 19 18 18 18 19 19 18 19 19 19 19 19 19 19 20 20 19 19 20 20 20 19 17 16 14 14 14 15 16 16 16 16 16 16 17 18 19 20 22 23 24 25 26 28 29 30 31
23 22 20 20 20 17 14 14 15 17 15 12 10 11 14 15 16 17 18 19 20 20 20 20 20 20 19 19 19 20 20 21 21 21 22 21 20 18 16 15 14 14 15 16 16 16 15 16 16 16 17 19 21 23 24 26 26 27 28 30 31 32 33
20 20 20 21 20 16 14 15 16 15 11 9 7 7 9 12 14 15 16 18 18 18 18 18 19 19 19 19 20 20 21 22 22 22 22 21 20 18 15 14 14 14 15 15 15 15 16 17 17 17 18 21 23 24 26 26 27 28 29 30 30 30 32
20 20 21 21 21 19 18 16 16 14 10 6 5 5 7 9 11 12 13 13 14 14 15 16 18 18 18 18 19 20 20 21 21 21 20 20 18 17 15 14 15 15 14 14 14 16 17 18 18 19 20 21 23 24 25 26 27 29 30 29 28 28 31
22 18 16 18 20 21 21 19 17 14 9 6 5 5 7 8 9 10 9 10 11 12 14 15 16 16 16 17 17 18 18 18 18 17 17 16 16 15 15 15 14 13 13 14 15 17 19 19 20 20 21 21 22 23 24 25 27 29 30 29 29 29 31
24 20 12 15 18 20 21 19 17 15 11 8 8 8 9 9 10 9 9 9 10 11 12 13 14 14 15 16 16 16 15 14 14 14 14 14 14 14 14 14 13 12 13 15 17 18 18 19 19 20 21 22 22 23 24 26 27 29 30 30 31 32 34
27 23 15 20 21 21 22 21 19 17 14 12 11 12 13 12 11 10 9 9 9 11 11 12 13 13 13 14 14 14 13 12 12 13 13 12 13 13 13 12 13 14 15 17 17 17 16 17 18 19 21 23 25 25 27 28 28 28 29 31 33 34 35
32 32 24 24 26 25 26 25 23 21 17 15 14 14 14 14 13 11 10 10 10 10 10 11 12 13 13 13 14 14 13 12 12 12 12 11 12 12 12 13 15 16 17 16 15 15 16 18 19 20 23 25 26 27 28 29 29 30 30 31 34 35 36
36 36 29 26 26 27 27 25 25 24 19 16 15 15 16 16 16 14 12 11 12 11 11 11 12 13 13 13 14 14 13 12 11 11 11 11 12 13 13 15 16 17 17 15 14 15 17 19 21 22 24 26 27 28 29 30 30 32 32 33 34 35 37
29 28 27 26 25 26 28 27 27 27 22 17 16 16 17 17 18 18 15 13 14 14 14 13 12 13 14 13 13 13 12 10 10 11 11 11 13 15 15 16 16 17 17 16 16 17 18 20 22 24 25 27 28 29 30 30 30 32 33 33 34 36 39
28 28 30 30 26 25 28 29 28 28 25 19 16 16 16 17 18 20 18 16 15 16 17 15 13 12 14 14 13 12 10 10 10 11 12 13 15 16 15 14 14 15 17 18 19 18 19 20 23 25 26 27 28 30 32 32 31 33 34 34 35 37 39
32 33 33 31 27 26 30 30 28 28 27 22 18 16 15 16 18 19 20 18 17 18 18 17 14 12 13 15 13 11 10 10 11 12 14 15 15 14 13 12 12 15 18 20 21 21 21 23 25 27 28 28 30 31 33 34 34 35 35 36 36 36 37
34 32 33 33 29 27 31 33 31 30 29 24 21 19 18 17 17 19 21 21 19 19 19 19 17 13 13 15 14 12 11 12 12 13 14 14 13 12 12 13 14 16 18 19 21 23 24 25 26 28 30 31 32 33 35 36 36 37 37 38 37 36 36
36 34 36 35 31 30 33 34 33 33 32 27 23 23 21 19 19 19 21 21 21 20 20 20 18 15 14 16 15 12 11 13 13 13 13 13 13 13 14 16 17 17 17 18 20 23 25 26 26 28 32 34 35 36 37 37 38 39 39 39 39 37 37
39 38 39 36 31 30 33 35 36 36 34 30 27 26 23 21 20 19 20 21 20 20 19 19 20 18 15 17 16 12 12 13 12 12 13 13 13 14 15 16 17 17 18 18 20 23 25 26 27 29 31 34 37 39 39 39 40 41 41 40 39 39 38
40 40 42 41 37 35 35 37 39 38 36 34 31 29 27 24 22 21 21 21 20 20 20 19 20 19 17 17 17 14 13 13 13 13 13 13 13 14 14 15 16 18 20 21 22 25 28 29 30 30 31 34 37 41 41 42 43 44 42 40 40 40 38
41 41 41 40 40 40 41 41 42 40 39 38 36 34 31 27 25 24 24 23 21 22 21 20 21 21 18 17 17 15 13 13 13 13 13 13 12 13 14 16 19 22 24 26 27 29 32 34 34 33 34 36 38 41 43 44 45 47 44 41 40 40 37
42 41 40 40 41 42 43 44 44 42 41 40 39 38 34 29 27 27 26 24 22 22 22 20 21 21 19 18 18 16 15 15 15 15 14 14 13 15 18 20 23 25 27 29 31 33 35 37 37 37 38 39 40 43 45 45 47 48 47 43 40 38 37
40 41 41 41 41 42 43 44 45 44 43 42 41 39 37 32 30 28 26 24 23 23 23 21 20 21 20 19 18 17 17 19 18 17 16 16 16 18 20 22 24 26 28 31 33 35 37 39 40 41 42 43 44 46 48 48 48 48 47 43 39 37 36
37 40 44 43 40 39 40 40 43 44 44 43 42 40 38 35 32 29 28 26 25 24 24 22 20 20 19 18 17 18 20 22 22 21 20 19 20 21 22 24 26 28 30 32 35 37 39 41 42 44 45 46 47 49 49 49 48 47 45 41 37 35 36
40 40 44 47 44 40 37 36 38 43 45 44 43 42 41 38 34 31 29 28 27 26 25 24 20 19 18 16 16 17 19 21 23 23 23 22 22 24 24 26 28 30 31 34 36 38 41 43 45 47 48 49 50 51 51 50 48 44 40 36 34 34 35
52 49 48 49 47 44 44 40 36 37 41 45 45 45 43 41 39 35 30 28 28 27 26 25 21 20 19 18 17 17 18 20 22 23 24 24 25 26 27 29 30 32 34 36 37 40 42 45 48 50 50 51 53 53 52 50 47 42 37 34 33 33 34
57 57 57 56 55 54 54 51 45 39 38 43 46 47 46 46 44 38 32 30 30 29 28 26 23 21 21 20 20 20 21 22 23 24 26 27 28 29 30 31 33 34 36 38 40 42 44 47 50 51 52 53 54 54 53 51 47 41 37 34 34 34 34
61 61 61 60 60 58 57 56 55 48 42 42 45 46 47 49 49 42 35 32 32 31 29 28 26 24 23 22 23 24 25 26 27 28 29 31 32 33 33 34 35 36 37 39 42 44 46 48 51 52 53 55 55 55 54 52 46 42 39 37 36 36 35
52 58 60 59 56 54 55 58 58 51 46 46 47 46 47 51 52 46 37 33 33 32 30 29 28 26 25 26 27 28 29 30 31 32 34 35 36 37 37 37 38 38 38 40 43 45 46 49 51 52 53 55 55 54 53 49 44 42 40 38 37 37 36
40 47 55 56 51 49 53 56 54 49 47 48 49 48 47 50 53 48 39 35 35 34 32 31 30 29 29 31 32 31 32 33 34 37 39 40 40 41 40 39 39 39 40 42 44 46 47 50 52 52 52 53 53 52 49 45 42 42 41 38 37 37 36
38 42 46 47 48 51 54 52 46 44 47 49 49 49 50 52 53 49 41 38 37 36 34 34 32 32 34 35 36 35 35 36 38 41 43 44 46 46 42 39 40 41 42 44 45 46 49 52 54 54 52 50 50 49 46 42 41 43 42 39 37 37 37
39 42 41 41 47 52 53 48 43 42 47 50 51 51 53 53 53 49 43 40 39 37 36 35 34 34 36 37 39 39 39 40 41 43 46 49 51 48 43 41 43 44 44 45 46 46 49 52 54 54 53 50 48 47 46 43 42 42 41 37 36 37 38
37 42 42 41 46 49 47 45 44 44 47 51 53 53 54 53 52 49 45 42 40 38 37 36 36 36 37 38 39 39 40 41 42 44 48 52 51 49 46 45 45 46 46 46 46 47 50 52 53 54 53 51 49 47 47 45 43 41 39 36 35 37 38
34 40 43 41 42 46 45 43 45 47 50 53 55 55 54 53 51 49 46 44 41 39 38 38 38 39 39 39 39 40 41 43 44 45 49 52 52 51 50 47 46 47 47 47 47 48 51 52 53 53 53 51 50 48 48 46 43 41 39 37 37 39 40
36 41 46 42 41 46 49 47 48 51 54 56 57 56 54 52 50 49 47 44 42 40 40 40 41 41 41 40 41 41 42 44 45 47 51 54 55 55 53 48 47 48 48 47 48 49 51 51 52 53 52 51 50 49 48 47 44 42 41 40 40 41 41
39 43 46 45 45 49 52 52 53 56 58 58 57 55 53 51 49 48 46 43 42 41 42 44 44 43 43 42 42 42 44 46 47 49 53 57 58 60 57 51 47 48 48 47 48 49 50 51 52 52 52 51 50 50 49 48 46 44 43 42 41 42 42
41 45 47 49 51 52 51 51 54 57 58 58 57 54 52 49 46 45 44 44 44 44 45 46 45 44 43 43 43 44 46 48 50 52 55 57 59 62 60 51 44 45 48 48 48 49 50 51 52 52 52 52 51 50 50 49 47 45 43 42 42 42 42
41 46 48 50 52 52 51 48 49 51 53 55 55 52 48 45 43 43 45 45 46 46 46 46 45 44 44 44 45 47 48 50 52 53 52 51 52 53 48 42 40 44 48 49 49 50 50 51 52 53 52 51 50 50 49 49 48 46 44 44 44 43 41
40 44 46 47 48 49 48 45 42 42 43 45 47 47 46 45 45 46 46 46 46 46 46 46 45 45 45 46 47 49 51 51 51 48 46 46 46 45 40 39 42 47 49 49 50 50 51 52 53 53 52 50 50 49 50 51 50 48 46 46 45 44 43
42 45 46 45 44 46 45 40 34 31 32 35 39 43 45 45 45 45 45 45 46 47 47 47 47 47 47 48 50 51 51 50 47 46 46 46 46 45 43 43 46 49 50 50 50 51 52 53 52 51 50 49 49 50 53 54 50 47 46 46 45 45 45
39 43 43 38 35 38 40 35 28 26 30 34 37 41 43 44 44 45 46 46 47 47 47 48 48 48 49 50 50 50 49 48 46 47 48 48 47 47 46 47 49 50 51 51 51 51 52 52 50 48 48 47 47 49 51 49 45 46 49 48 46 46 45
26 28 29 27 27 32 36 34 30 30 33 36 38 40 41 42 44 45 46 47 48 48 48 49 49 49 50 49 48 47 47 48 48 49 50 49 49 49 48 50 52 53 52 51 51 51 51 50 48 47 46 45 45 46 46 45 46 51 53 50 47 48 47

ECMWFFLT1_500_spd_042.txt.gz
Wind_Speed
20 21 21 20 21 23 23 22 21 20 22 23 22 22 22 22 21 21 20 18 17 17 17 17 17 18 17 17 18 18 17 17 17 16 16 16 15 14 14 15 13 12 11 11 10 9 8 9 10 9 9 9 10 11 12 13 14 16 17 18 19 20 21
19 21 21 21 22 23 24 23 21 21 23 24 23 23 24 23 22 21 21 21 20 20 20 19 20 20 20 20 20 19 19 19 19 19 19 18 17 16 16 16 14 13 12 12 10 9 8 9 9 9 9 10 9 10 12 13 15 17 18 19 21 22 23
16 19 20 21 22 22 22 21 21 22 24 24 24 24 23 22 21 21 21 22 22 22 21 21 21 21 22 22 21 21 21 21 21 21 21 21 20 18 17 16 15 13 13 12 11 10 9 8 7 8 9 10 10 10 12 14 16 18 19 20 22 23 23
13 17 18 20 21 21 21 21 22 23 24 24 24 24 22 21 21 21 21 22 22 22 21 22 23 24 24 24 23 22 22 22 23 23 23 21 19 18 16 15 15 14 14 12 11 10 9 7 6 8 9 10 11 12 13 15 17 18 19 21 23 23 24
11 13 16 18 20 21 22 23 23 23 23 23 24 23 22 21 20 19 20 20 21 21 22 23 25 26 26 25 24 23 23 23 23 23 22 19 17 16 16 16 16 15 14 12 10 9 8 7 7 8 9 10 11 12 14 15 17 19 21 22 23 24 25
11 12 14 17 21 21 20 22 23 21 21 23 23 23 21 20 18 17 18 19 20 21 23 24 25 25 25 25 24 24 24 23 22 21 19 18 16 16 16 17 16 15 14 12 10 9 7 7 8 9 10 10 12 13 15 17 19 20 21 22 22 23 24
13 14 15 16 20 21 20 22 23 22 23 24 25 24 22 19 17 17 18 18 19 20 21 22 23 24 25 25 25 24 23 22 22 21 19 18 16 16 17 17 15 14 13 11 10 8 8 8 9 9 10 11 13 14 16 18 19 20 20 21 22 22 22
15 17 17 16 17 19 21 23 24 25 26 27 27 25 23 19 16 16 17 18 18 19 19 20 22 23 24 24 24 23 22 23 22 21 19 17 16 16 17 16 14 14 13 11 10 8 8 8 9 9 10 12 13 15 17 18 18 18 19 21 22 22 23
18 20 21 19 17 18 21 23 24 25 26 26 26 24 22 19 17 16 16 17 18 18 18 19 20 22 23 23 22 22 22 22 21 20 19 17 17 17 17 16 15 14 13 11 10 9 9 9 9 10 11 12 14 15 16 17 17 18 19 21 23 24 25
20 21 24 24 22 20 22 24 25 26 26 26 25 24 23 20 17 16 17 17 17 18 18 19 20 21 21 21 21 22 21 20 20 19 19 18 17 17 17 16 15 14 13 11 10 10 10 9 9 10 12 13 13 14 15 17 17 18 18 20 23 25 26
20 22 26 28 26 23 23 26 29 29 28 26 25 24 21 19 19 18 17 17 17 18 18 19 19 19 19 20 21 20 20 19 19 19 19 19 19 18 18 17 15 14 13 12 11 11 10 10 10 11 12 12 12 14 15 17 18 19 20 21 24 26 28
21 23 28 30 27 24 25 28 31 32 30 28 25 22 21 20 21 21 20 18 18 19 19 19 19 19 19 19 19 19 19 19 18 18 19 20 19 19 18 17 16 15 13 13 13 12 11 11 11 12 11 11 12 14 16 18 19 21 22 24 25 27 30
21 25 30 29 24 22 25 29 32 34 32 28 24 22 22 23 24 24 23 21 20 19 19 20 20 20 19 19 19 18 19 19 18 19 19 20 20 20 19 18 17 16 14 14 14 13 12 12 12 12 11 12 13 15 16 18 19 21 24 25 26 28 30
25 28 27 23 20 20 24 29 33 34 32 29 26 23 22 24 25 25 24 23 22 21 21 21 22 21 20 20 20 18 18 19 20 20 21 21 21 21 20 19 18 17 16 16 15 14 14 13 12 12 12 12 14 16 18 19 20 22 24 26 28 29 30
33 30 23 19 19 18 21 28 34 35 32 29 27 24 24 24 24 25 26 26 25 24 23 23 23 23 22 22 21 19 19 19 21 22 22 22 22 21 20 20 19 18 18 17 16 16 15 14 12 12 12 13 15 17 19 20 21 22 25 27 30 31 32
36 31 24 21 21 19 20 27 33 34 32 29 27 26 26 26 26 25 26 27 28 27 26 26 26 25 24 22 22 22 21 21 21 22 22 22 22 21 21 20 20 20 19 19 19 18 16 14 13 12 13 14 16 18 20 21 22 24 26 28 31 33 34
35 31 25 23 24 22 23 26 30 30 29 28 28 27 26 26 26 27 27 28 29 30 29 29 28 27 25 22 23 24 24 24 23 22 22 22 22 22 22 22 21 21 21 21 20 18 16 14 13 13 14 16 18 19 21 22 23 25 27 29 32 35 35
29 26 23 24 27 27 26 27 29 30 30 30 29 27 25 25 26 27 28 28 28 30 31 31 29 29 27 24 25 26 25 26 26 24 23 22 23 23 23 23 23 23 22 21 19 18 16 14 13 14 15 17 19 21 22 23 25 27 29 31 34 36 37
29 27 26 26 28 29 28 30 31 33 32 32 32 30 27 28 29 29 28 27 27 29 32 32 31 30 29 27 27 27 27 27 28 26 24 23 23 25 26 26 25 24 23 21 20 19 17 14 14 15 16 18 20 22 23 25 27 29 30 32 36 38 39
34 35 34 33 32 33 33 33 34 35 34 34 35 33 31 33 34 35 34 32 30 31 32 33 32 32 31 30 29 29 29 29 29 28 26 24 25 27 29 28 25 24 24 23 21 19 17 16 16 17 18 20 23 24 25 27 31 33 34 35 38 40 40
40 40 42 41 38 37 37 36 34 33 34 35 35 35 35 36 38 40 41 39 36 34 33 33 33 34 34 33 32 31 31 31 31 30 28 26 27 29 30 28 26 25 25 24 22 20 19 18 18 18 20 23 25 26 28 30 34 35 36 38 40 42 43
42 43 45 46 43 40 40 41 40 38 37 37 35 35 38 41 43 44 45 45 43 40 37 36 35 35 35 36 35 34 34 33 32 31 30 28 28 30 30 29 27 25 25 24 24 23 22 20 19 20 22 25 27 28 30 32 33 34 35 38 41 43 44
47 46 46 46 46 46 45 46 46 44 42 40 39 40 43 45 47 48 49 48 47 44 42 40 38 37 36 37 37 36 36 35 34 33 32 30 29 29 29 30 29 27 26 25 25 24 22 20 19 21 23 26 29 30 31 32 33 34 37 39 42 44 44
50 50 48 45 45 46 48 50 49 47 45 45 46 47 48 48 50 51 52 52 49 46 43 41 39 39 38 38 38 37 37 37 36 35 33 32 30 29 29 30 30 29 28 26 24 23 21 20 20 22 24 27 30 31 33 34 35 38 40 43 45 46 45
50 50 49 47 45 45 46 49 52 52 51 52 52 51 50 50 50 51 52 51 49 48 46 42 40 39 39 40 40 39 38 38 38 37 35 34 32 29 28 29 29 29 28 26 24 22 21 21 21 23 25 28 31 33 34 36 38 41 43 45 48 49 47
53 53 53 51 49 48 48 49 51 53 54 55 54 52 51 50 49 50 50 49 49 49 47 43 41 41 42 42 43 42 40 39 40 39 38 36 34 31 29 29 30 30 28 26 24 22 22 22 23 24 26 28 32 35 36 37 39 42 43 45 47 47 45
51 55 57 57 55 53 53 51 50 50 51 52 53 53 53 52 51 51 51 50 51 50 47 45 45 44 45 45 46 45 44 43 42 41 40 38 37 34 32 31 31 31 29 28 26 24 24 25 25 25 26 30 34 36 37 39 39 40 41 43 42 38 36
44 47 51 56 58 59 59 58 56 54 53 54 55 56 57 56 54 53 53 54 53 51 48 48 49 48 48 48 47 47 47 46 44 43 42 41 40 38 35 33 33 33 31 30 28 27 28 28 28 28 29 33 35 36 37 38 38 38 39 40 39 36 36
43 43 45 48 52 55 58 60 60 61 62 61 61 60 60 59 58 57 56 57 57 55 53 53 53 52 50 50 50 50 49 48 47 46 45 43 42 41 38 37 36 35 33 32 31 31 31 31 31 31 33 36 37 37 36 35 35 37 39 39 39 40 41
45 46 46 47 47 48 49 50 51 55 60 65 67 67 65 63 62 60 59 58 58 58 58 58 58 56 54 54 54 53 51 49 48 47 46 45 44 43 42 41 39 38 36 34 34 34 34 34 33 33 35 37 39 39 37 34 35 37 39 40 41 42 44
47 48 49 50 51 51 50 48 47 47 50 56 63 68 70 71 69 67 64 63 62 61 61 62 61 60 59 59 59 57 54 52 50 49 48 48 48 47 46 45 43 40 38 37 37 37 36 36 36 36 36 38 41 42 40 37 37 39 40 41 42 43 45
48 49 50 50 52 53 53 52 50 48 46 47 51 56 61 66 69 70 70 71 71 69 66 64 64 64 65 65 64 64 62 57 53 51 50 50 51 51 50 49 47 44 41 41 40 39 37 37 39 39 38 39 41 43 41 39 39 40 41 42 43 44 46
51 52 52 52 51 53 54 54 53 52 49 48 48 48 50 54 57 60 62 65 70 74 74 72 69 69 70 71 70 70 72 70 63 59 56 54 54 54 54 53 51 47 45 44 43 40 38 39 41 40 39 40 42 44 43 40 40 40 41 42 42 44 46
52 52 52 52 53 53 55 56 56 55 53 52 52 51 51 52 53 55 56 58 62 68 74 77 77 76 76 77 74 71 74 76 70 64 61 59 58 58 58 56 53 49 48 47 45 41 40 41 41 40 40 41 44 46 44 41 40 41 41 41 42 44 44
50 50 50 51 52 54 55 55 56 56 56 56 56 56 57 57 58 59 60 60 61 63 67 73 79 81 82 83 81 74 67 64 63 64 64 62 61 61 59 56 54 53 51 49 46 44 43 43 42 41 42 44 47 47 43 41 41 42 41 41 42 43 42
51 50 49 49 50 52 52 52 52 53 55 56 56 57 58 59 60 61 62 64 65 64 64 67 73 78 81 83 82 77 67 57 55 61 64 62 62 63 59 55 54 53 51 48 45 44 44 43 42 42 44 46 48 47 43 41 43 43 41 41 42 42 40
49 48 48 48 49 50 50 49 49 50 52 53 53 52 53 54 56 58 59 62 64 62 62 67 73 77 79 76 73 73 71 64 59 60 60 58 60 61 56 52 52 52 49 46 44 44 44 43 42 43 44 47 49 47 43 42 45 44 42 42 42 41 39
47 47 47 47 48 48 48 47 46 47 48 48 47 46 46 48 50 52 54 56 58 59 60 64 66 67 69 69 67 69 70 67 61 57 54 54 58 57 54 52 51 51 49 46 45 46 46 44 44 45 46 47 48 46 43 44 45 43 42 43 42 40 38

ECMWFFLT1_500_spd_045.txt.gz
Wind_Speed
16 15 14 14 16 20 22 21 20 20 20 20 19 20 20 20 20 20 19 18 18 18 17 16 15 14 14 15 16 16 16 16 16 16 17 17 17 17 17 17 16 15 16 17 16 14 12 10 9 8 6 4 4 5 7 8 9 10 11 13 14 16 17
18 15 12 14 16 18 21 22 22 22 22 22 22 22 21 20 20 20 20 20 20 21 20 19 19 17 17 18 18 18 19 19 19 19 19 19 19 19 19 19 18 17 18 19 17 15 13 11 10 8 6 5 6 6 7 9 10 11 12 13 14 15 15
19 13 10 12 14 17 21 23 23 23 23 23 23 23 21 20 20 21 22 22 23 23 23 22 22 21 21 21 21 21 21 21 21 21 21 21 21 22 22 22 21 20 19 19 19 17 14 12 10 7 6 6 7 7 7 9 10 11 13 13 13 13 13
17 11 10 9 9 13 19 24 25 23 22 22 23 23 21 20 21 23 24 24 23 23 23 23 23 24 24 24 23 23 23 23 23 23 23 23 24 24 24 23 22 21 20 20 20 17 14 12 10 8 7 7 7 7 8 9 10 12 12 12 12 12 12
13 12 10 7 6 9 16 22 25 22 20 21 23 24 22 22 24 25 25 23 22 22 22 23 24 25 26 26 25 25 25 25 25 25 26 26 26 26 24 24 23 21 20 22 21 18 15 13 11 10 9 8 8 7 8 9 10 11 11 10 11 11 11
13 13 11 7 5 8 13 19 23 22 19 21 24 25 23 23 25 25 24 22 21 21 22 22 22 23 24 26 26 26 26 26 26 26 27 27 27 26 24 24 24 22 21 22 21 18 16 13 12 11 11 9 8 8 9 10 10 10 9 11 12 12 13
15 14 11 8 6 8 12 16 20 21 20 22 24 25 24 25 25 25 24 22 22 21 20 20 19 20 22 24 25 26 26 27 27 28 28 28 27 26 25 24 23 23 22 22 21 19 17 15 14 13 12 10 8 9 10 10 10 9 9 12 14 15 16
19 17 14 10 8 8 12 16 19 20 21 23 25 25 25 25 26 26 24 23 22 21 19 18 18 19 21 23 24 25 26 27 28 28 28 28 27 26 25 24 24 24 23 21 21 20 18 16 15 14 12 10 9 10 10 10 9 9 11 13 15 17 18
24 22 17 13 11 11 13 15 18 21 22 24 24 24 24 25 26 25 24 23 23 21 19 17 17 18 20 22 23 24 25 26 27 28 28 28 26 25 24 24 25 24 22 22 22 21 19 17 16 15 13 11 11 10 10 10 9 10 12 14 15 17 18
25 24 20 17 14 15 17 18 19 21 23 24 23 22 24 25 26 26 25 25 23 20 18 17 17 18 19 20 21 22 23 24 25 26 27 26 24 24 24 24 25 24 22 23 23 22 20 19 17 15 14 13 12 11 10 10 10 11 13 14 16 17 18
27 26 23 20 17 18 21 22 22 22 23 23 22 21 22 25 27 27 26 25 22 20 19 18 17 17 18 18 19 21 21 22 23 24 23 22 22 23 24 25 25 24 23 23 23 22 21 20 17 16 15 14 13 11 11 12 12 12 13 15 17 18 20
30 28 26 22 20 21 24 25 23 22 23 24 23 22 21 24 27 28 27 25 22 21 19 18 17 17 17 17 18 19 20 20 21 21 20 20 21 23 25 25 25 24 23 24 24 23 22 20 19 18 17 16 14 12 12 13 13 13 14 16 18 20 22
35 33 29 24 23 24 27 27 24 21 22 23 23 23 22 25 28 28 27 25 22 21 20 18 18 17 16 17 17 18 19 19 19 19 18 19 21 24 26 26 25 25 24 25 25 24 23 21 20 19 19 17 14 13 14 14 14 14 16 18 19 21 24
37 35 31 29 27 26 28 28 24 21 22 23 23 24 25 27 28 28 26 23 22 21 20 19 18 17 17 18 17 17 17 18 19 18 18 20 21 23 25 26 25 25 26 27 26 24 23 22 22 21 19 17 14 14 15 15 14 15 17 19 21 23 25
37 34 34 32 29 27 28 28 24 22 23 24 26 27 27 29 29 29 26 23 22 22 22 21 20 19 19 19 18 17 17 18 19 19 20 21 21 22 23 24 25 26 27 28 26 25 24 24 23 22 19 17 15 15 15 14 15 15 17 20 23 25 26
38 34 33 34 32 30 30 28 24 22 23 26 30 30 30 30 29 28 26 24 23 22 22 22 21 20 21 20 18 18 19 19 19 20 21 21 21 21 22 23 25 27 28 27 26 26 26 26 24 22 19 18 16 15 14 14 15 16 18 21 24 26 27
41 36 34 37 36 33 31 27 24 21 20 24 29 30 31 32 30 28 26 25 23 22 22 23 23 22 22 21 21 22 23 22 22 22 22 22 22 22 22 24 25 27 28 28 27 27 27 27 24 22 20 19 17 15 14 14 16 17 18 21 24 27 27
42 39 37 38 38 34 32 30 26 24 20 21 25 29 31 32 32 30 28 26 23 21 22 24 24 24 25 24 25 26 26 25 25 25 24 24 24 23 22 24 25 27 28 28 28 28 29 28 25 23 22 20 18 16 15 15 17 17 19 22 25 27 27
38 36 35 36 35 33 33 33 31 27 22 19 23 29 31 31 31 31 29 25 23 23 24 24 25 26 27 28 29 29 29 28 27 27 27 27 27 26 25 25 25 25 27 29 29 30 30 29 26 25 24 21 19 17 16 17 18 19 20 22 25 27 27
37 35 33 32 31 30 30 31 33 31 25 21 24 28 30 31 31 29 27 26 26 26 26 25 26 26 27 29 30 30 31 30 29 29 29 29 29 29 28 27 26 25 25 28 31 31 31 30 28 27 25 23 21 20 19 19 20 20 21 23 26 28 28
41 39 37 35 32 31 32 33 33 32 28 26 28 30 32 33 33 31 30 29 29 28 27 26 26 26 26 27 29 30 32 32 31 31 31 32 32 32 31 29 28 27 26 28 31 32 32 31 30 28 26 24 23 22 21 21 21 21 23 24 27 30 30
43 42 41 39 36 33 32 34 33 31 30 29 29 32 35 36 36 36 33 32 31 31 30 30 30 30 28 28 29 30 31 32 32 33 34 34 34 33 32 30 29 29 28 28 30 33 34 33 31 30 28 26 26 24 23 23 22 23 24 25 28 31 32
42 42 42 41 38 34 33 34 33 30 30 30 30 34 36 36 37 38 35 34 35 35 35 36 35 34 33 32 31 31 32 32 33 35 37 37 36 35 33 32 31 30 30 29 31 33 34 33 32 31 29 29 28 26 24 23 23 24 25 27 30 32 32
41 41 42 41 39 38 36 35 33 32 32 32 31 33 36 37 40 39 37 36 38 40 41 40 39 37 37 36 36 35 35 35 35 37 39 39 38 37 36 35 33 31 31 31 31 33 33 33 34 33 33 33 30 28 26 24 25 27 27 28 31 32 33
44 42 42 42 41 39 38 36 35 36 38 37 34 35 37 39 41 42 42 42 43 44 43 41 40 40 39 38 36 36 36 36 36 38 40 40 39 39 38 37 36 34 33 32 33 33 34 35 36 36 36 35 32 29 27 26 27 29 29 30 32 32 34
46 45 43 44 44 43 41 41 39 39 41 41 40 40 41 41 42 43 45 46 45 45 44 42 41 42 42 41 39 37 37 37 37 38 41 41 39 40 40 40 39 38 36 34 34 35 36 37 38 38 37 36 33 31 29 28 29 30 30 32 33 33 34
47 47 47 46 46 46 46 45 44 43 44 44 43 43 44 44 45 45 46 48 49 49 48 46 45 46 47 47 46 43 40 38 38 40 42 41 40 41 42 42 42 42 39 37 36 37 38 39 40 39 38 37 34 32 31 30 30 31 32 34 35 35 35
47 49 50 49 49 48 49 49 48 48 48 47 46 46 46 46 45 45 46 49 52 52 50 48 48 48 48 49 50 48 46 44 43 43 44 44 42 43 44 44 44 43 42 40 39 39 40 40 41 41 39 38 36 34 33 32 31 31 34 35 35 36 37
45 49 51 52 51 50 50 50 50 50 50 50 49 50 50 49 48 47 47 48 48 49 49 50 50 50 50 51 53 53 52 52 51 49 48 47 47 47 47 47 47 46 45 44 43 43 43 42 42 42 41 40 38 36 35 34 33 33 35 36 36 38 39
41 45 49 52 53 53 53 53 53 53 52 51 51 50 51 52 52 51 51 50 49 50 51 52 53 54 55 55 55 54 53 53 53 51 49 48 48 49 50 51 51 50 49 49 47 46 46 45 44 44 43 42 40 39 38 37 35 36 37 37 38 40 42
40 42 44 46 48 49 50 52 53 54 53 53 52 52 52 53 53 54 55 55 55 56 57 57 58 59 60 59 59 58 56 55 53 51 50 50 50 52 54 55 55 54 53 53 53 51 50 48 47 47 46 44 42 41 42 40 37 38 39 40 41 43 44
41 41 42 42 42 42 43 44 47 49 50 50 51 52 52 53 53 55 56 58 59 60 61 61 61 62 62 62 62 61 60 60 58 57 56 56 55 55 56 58 58 58 57 57 57 57 55 53 52 51 49 46 45 45 43 41 40 40 42 43 44 45 45
44 45 45 45 44 44 44 45 45 47 47 47 47 48 49 50 50 52 54 55 56 57 57 57 57 56 57 58 59 59 61 63 65 65 65 63 62 61 60 61 61 61 60 60 62 64 61 58 57 55 53 49 48 47 45 43 41 41 44 46 47 46 45
49 49 50 50 49 49 49 49 48 49 48 48 47 47 48 48 48 49 51 53 53 54 53 53 52 52 52 53 55 56 58 60 62 63 64 64 65 65 64 64 64 63 63 64 65 66 68 66 63 58 55 53 51 50 48 45 43 45 48 50 49 46 45
55 55 56 56 55 54 54 53 51 51 50 50 49 50 50 49 48 48 48 49 51 52 52 52 53 53 52 53 54 56 57 59 61 62 62 62 63 63 64 66 67 66 67 69 69 67 65 66 67 63 59 57 55 53 50 46 46 48 50 49 47 46 46
58 58 58 57 56 56 55 54 53 52 51 51 51 52 52 51 51 49 48 47 48 50 52 52 52 52 52 53 55 57 60 62 64 66 67 68 67 65 64 65 67 68 69 72 75 73 67 62 63 66 64 60 58 55 50 48 49 50 49 48 47 47 48
55 55 55 55 55 54 53 52 52 52 51 51 51 51 51 51 52 51 50 48 47 49 50 51 51 52 53 55 57 59 62 65 67 69 71 73 74 73 71 68 67 69 72 75 78 81 74 63 58 62 63 59 56 53 50 50 51 50 48 49 49 48 48
54 53 52 52 53 53 52 51 51 51 51 51 50 50 50 50 50 50 49 48 46 47 49 51 51 53 54 56 59 60 63 66 67 67 72 77 77 76 77 75 70 69 73 76 79 83 79 66 57 60 64 60 55 52 51 52 51 49 49 49 49 49 48

ECMWFFLT1_500_spd_048.txt.gz
Wind_Speed
23 22 21 19 17 13 10 10 12 14 15 16 15 16 18 18 17 16 15 15 15 15 15 15 15 15 14 14 16 17 16 16 16 15 16 16 16 16 15 14 15 15 15 14 14 14 14 14 13 11 10 10 8 8 7 5 3 3 5 7 9 11 11
24 22 20 18 16 15 12 10 13 15 17 18 18 19 20 20 18 16 16 16 16 16 17 16 17 17 17 18 18 18 17 17 16 17 17 17 17 17 16 16 16 16 16 15 15 15 16 16 14 12 12 11 10 9 7 5 4 4 5 8 9 9 9
22 20 17 15 14 14 13 12 14 16 18 19 20 21 21 21 20 18 18 18 18 19 18 18 18 18 20 21 21 20 19 18 18 17 18 19 19 19 19 18 18 18 18 17 17 16 17 18 16 14 13 12 11 10 8 6 5 5 6 8 8 7 8
21 20 18 16 16 17 16 16 17 18 20 20 21 21 22 22 22 21 21 21 21 21 19 19 20 21 22 22 23 22 21 21 20 19 20 21 21 21 21 20 20 19 19 19 19 18 19 19 18 15 14 14 13 11 9 7 6 6 8 9 8 7 8
21 21 20 19 19 18 16 16 16 17 20 21 21 22 22 24 24 23 23 23 22 21 20 20 21 21 22 23 24 24 24 24 23 22 22 22 23 23 22 21 21 21 21 21 21 20 20 20 19 17 16 16 14 13 10 8 7 7 9 9 8 8 9
17 19 22 21 19 16 13 12 12 14 18 21 23 23 23 25 26 25 25 24 23 21 20 19 19 19 21 22 24 25 26 26 26 25 24 24 24 23 22 23 23 23 23 23 22 21 21 20 19 17 17 17 16 13 12 10 9 8 9 9 8 9 10
15 17 21 21 18 15 13 11 11 12 16 21 24 24 24 26 27 26 26 25 23 21 19 18 17 18 20 22 24 25 26 27 27 26 26 25 25 24 23 24 24 25 25 24 23 22 21 21 20 18 18 19 17 15 13 12 10 10 9 8 8 9 10
17 18 23 22 19 17 15 13 12 12 15 20 24 25 25 26 27 27 26 25 24 21 19 17 17 18 20 22 24 25 25 26 27 27 27 26 25 24 24 25 26 26 27 25 24 22 22 21 20 18 19 20 18 15 14 13 12 11 10 8 8 9 10
21 23 27 25 22 20 17 14 13 14 16 19 22 24 25 26 27 27 26 26 24 21 18 18 18 20 21 22 23 23 25 26 26 26 26 26 26 25 25 26 27 28 28 26 24 23 23 22 21 19 20 21 19 16 16 15 14 13 11 9 8 8 9
25 26 29 28 25 22 19 16 16 17 18 20 21 22 24 25 26 27 27 26 24 21 19 19 20 21 22 22 22 22 23 23 24 25 25 25 25 26 26 27 28 29 28 26 25 24 23 23 21 20 21 22 20 17 17 17 16 15 13 10 9 9 10
27 27 29 30 28 25 22 20 21 20 18 18 18 19 21 23 25 26 26 25 23 21 20 21 22 21 21 21 21 21 21 21 22 22 22 24 25 25 27 27 28 28 27 26 25 24 24 23 21 20 22 22 21 20 19 18 18 17 14 12 11 11 12
29 29 31 32 31 29 25 23 24 23 21 20 18 17 17 19 22 24 25 24 23 22 22 22 22 21 20 19 19 18 18 18 19 19 21 22 23 24 25 26 27 27 26 26 25 24 23 22 21 21 22 23 23 21 20 19 19 18 16 14 13 13 14
33 32 33 35 35 33 30 28 26 26 25 23 21 19 18 19 21 23 23 23 22 23 23 23 22 21 20 18 16 15 15 16 17 18 19 20 20 21 22 23 24 25 25 24 24 24 23 22 22 22 23 24 24 23 21 20 20 20 18 16 15 15 15
33 35 36 37 35 34 33 31 28 28 28 26 24 22 21 21 22 23 23 22 22 24 23 23 22 21 19 16 14 13 13 14 15 16 17 17 18 18 18 19 20 21 23 23 23 22 22 22 23 24 25 25 25 24 23 21 21 21 20 18 17 17 16
31 34 37 38 37 35 34 31 28 29 30 27 25 24 23 23 23 24 23 22 23 24 23 23 23 21 19 17 14 13 13 13 13 13 14 15 16 16 17 18 18 19 20 21 21 22 23 24 25 26 26 26 26 26 24 22 21 22 22 21 19 18 17
29 32 36 39 39 37 34 30 28 30 31 29 27 25 24 24 23 23 22 21 22 23 23 22 22 21 20 18 15 14 14 14 13 13 13 14 14 15 16 17 18 18 19 19 20 21 23 25 26 26 26 26 27 27 25 22 22 23 23 23 21 20 19
27 30 34 37 39 39 36 32 29 31 32 31 29 26 24 23 22 20 20 21 22 22 22 22 21 21 20 17 16 16 16 15 15 15 14 15 15 16 17 17 18 18 18 19 20 21 23 25 26 27 27 27 28 28 26 24 23 24 25 24 23 22 21
26 28 30 33 36 37 35 31 30 32 32 30 28 28 26 23 21 21 21 21 22 22 22 22 21 20 19 18 18 19 18 17 17 17 17 18 18 19 20 20 19 18 18 18 20 22 23 25 26 27 28 29 30 29 27 25 25 26 26 25 24 24 23
26 27 27 29 32 33 32 29 28 31 31 27 27 28 27 24 23 23 22 22 22 23 23 22 20 19 19 19 20 21 20 20 21 21 21 21 22 22 23 24 23 21 20 19 20 21 23 25 27 29 30 30 30 30 29 27 28 28 27 26 25 26 26
26 27 28 27 27 29 29 28 27 29 30 28 26 26 26 25 25 26 26 26 26 25 24 22 21 20 20 21 22 22 23 24 23 23 24 25 26 26 26 26 25 24 24 23 22 22 22 24 27 29 30 31 31 31 30 30 30 30 28 26 26 27 28
27 28 29 28 27 28 28 29 30 30 30 30 29 28 28 28 26 26 29 30 30 28 26 25 25 23 22 21 22 23 26 27 26 26 26 27 29 29 29 28 28 28 27 26 25 25 24 25 26 28 29 30 31 32 32 32 32 31 29 28 27 28 29
29 29 30 31 31 30 29 28 30 32 32 33 33 31 31 31 30 28 28 30 31 30 29 28 28 27 26 25 23 24 25 27 27 27 27 28 30 31 31 30 30 30 30 29 28 27 26 27 27 27 28 30 32 33 33 33 33 33 31 29 29 30 31
32 32 32 33 33 33 31 29 28 31 34 35 34 33 32 32 32 31 31 33 34 33 33 33 32 31 29 28 27 26 26 27 27 27 28 29 30 31 32 32 32 33 33 33 31 29 28 28 28 29 29 30 32 34 34 35 35 34 32 31 32 32 32
35 34 35 36 35 35 36 34 31 30 32 32 31 31 32 32 33 33 33 34 34 35 35 34 33 32 32 31 31 31 30 29 29 29 30 31 31 31 32 33 34 35 36 36 35 33 32 31 31 31 31 32 32 33 35 36 37 37 36 35 34 34 33
37 37 37 38 38 37 38 38 37 35 33 31 30 30 32 33 33 33 33 34 35 34 32 30 31 34 36 35 35 36 36 34 34 34 34 35 34 35 36 37 37 38 39 39 39 38 36 35 35 34 33 34 34 34 36 38 39 39 38 38 37 36 34
39 39 39 40 40 40 40 40 40 39 36 33 31 31 32 31 31 31 32 34 35 33 29 29 33 38 39 39 40 40 40 39 38 38 38 38 38 38 40 40 39 39 40 40 41 41 40 39 38 37 36 36 36 36 37 39 41 41 41 41 40 38 36
39 41 41 41 41 41 41 41 41 39 37 34 32 32 31 30 29 30 31 32 34 32 30 32 35 38 39 41 43 45 45 42 40 41 41 41 40 40 41 42 41 41 41 41 43 45 45 44 42 42 41 40 39 39 39 39 41 43 44 44 43 40 38
39 40 42 43 43 41 40 39 39 38 37 35 34 32 31 31 30 31 32 33 33 33 34 35 36 38 40 41 41 43 44 42 40 41 43 44 44 42 41 41 42 43 43 43 44 44 45 47 47 46 45 45 43 42 41 41 42 44 46 46 44 43 41
39 40 42 43 44 43 41 40 39 38 37 37 36 35 35 34 34 34 35 35 35 36 37 38 38 40 41 41 40 40 41 41 42 43 44 45 46 45 44 44 45 45 45 46 47 47 48 50 51 51 50 50 48 45 44 44 44 45 48 49 47 46 44
39 41 43 44 45 45 44 43 42 41 40 40 40 40 40 39 39 39 39 39 39 40 40 41 41 41 41 41 41 41 42 43 44 45 45 46 47 47 48 48 48 48 48 49 51 53 53 53 54 53 52 52 51 49 47 46 47 48 49 51 50 48 47
39 41 43 45 46 46 46 46 46 45 45 45 45 45 44 44 44 44 44 44 44 44 44 45 45 46 45 45 44 45 46 46 47 48 49 50 50 50 51 51 52 52 51 52 54 56 56 56 55 55 54 53 53 53 51 49 49 50 52 54 53 50 50
40 41 42 44 45 45 45 46 47 48 48 49 49 48 48 48 48 48 48 48 47 47 47 47 47 48 47 47 47 47 47 49 50 50 51 53 54 54 54 55 56 56 55 55 56 57 57 57 54 53 54 55 55 55 55 54 53 52 54 56 56 54 54
42 42 42 42 41 40 41 42 44 45 46 47 48 48 48 48 48 47 47 46 46 46 46 46 47 47 47 47 47 48 49 50 51 51 52 54 55 55 54 55 56 57 57 57 58 57 57 57 55 54 56 58 58 58 59 58 58 57 57 58 58 58 57
45 44 44 43 41 39 39 38 39 40 41 43 44 44 44 45 44 44 44 43 43 43 44 44 45 46 46 47 48 49 50 51 51 52 53 55 56 56 55 54 54 55 56 56 58 58 59 59 59 59 60 61 60 61 61 62 63 62 61 61 60 61 62
46 45 45 45 44 42 41 39 39 39 39 40 41 42 43 44 44 44 45 44 44 44 44 45 45 45 46 47 47 48 49 50 52 53 54 56 57 57 57 55 55 56 57 57 58 60 61 62 63 64 64 65 64 62 61 63 65 65 65 65 65 65 64
45 45 45 46 46 45 44 43 41 41 41 41 42 43 45 46 47 48 48 48 48 47 47 47 48 48 48 48 48 49 49 51 53 54 55 56 57 58 58 59 59 61 62 62 61 61 62 64 65 66 68 69 68 66 66 67 67 68 68 68 69 70 70
46 45 46 46 46 45 45 45 44 43 44 45 45 46 47 49 50 51 51 50 50 51 50 50 50 50 49 49 49 49 49 51 54 55 57 58 58 59 60 61 62 65 68 69 68 67 66 66 66 67 70 72 72 71 70 71 72 70 67 64 63 66 70
48 48 47 47 47 46 46 47 47 47 47 48 49 50 51 51 52 52 52 52 53 52 51 51 50 50 49 49 49 49 49 51 53 55 56 57 59 60 61 62 65 70 73 74 73 73 73 73 72 71 72 74 76 76 72 69 70 71 69 66 62 60 65